GFSMA_500_spd_000.txt.gz
Wind_Speed
27 27 32 36 34 54 53 64 53 56 54 42 51 57 57 57 53 54 49 48 61 56 53 50 48 47 43 42 41 40 39 39 37 36 36 33 33 32 31 31 31 31 31
32 30 29 29 28 31 37 53 48 50 65 67 61 59 59 57 57 51 51 44 53 60 60 55 51 49 47 45 44 41 40 39 38 36 36 34 32 31 31 31 31 31 30
39 37 37 35 36 33 32 31 40 49 44 41 42 54 61 61 61 60 58 57 59 57 60 66 59 54 50 49 46 44 43 41 39 37 36 34 34 33 31 32 33 33 33
44 43 42 42 40 40 40 38 36 38 39 45 51 45 44 50 53 57 62 61 59 49 57 59 58 56 54 52 49 48 46 43 43 41 40 38 38 36 34 34 34 35 36
47 47 46 47 48 45 46 46 44 42 43 43 41 47 45 51 55 56 60 63 61 58 51 63 60 59 58 55 52 50 49 46 46 45 43 42 40 39 36 35 35 34 32
53 52 51 50 50 51 51 50 49 49 49 48 48 46 46 48 50 55 61 61 58 57 56 60 61 63 61 59 57 54 52 47 48 49 47 46 42 43 40 40 38 38 36
58 57 57 57 56 55 54 54 54 54 54 53 53 52 51 50 52 49 57 65 65 55 60 62 66 73 64 63 60 58 54 51 50 51 51 49 46 45 44 43 43 42 42
64 63 62 61 60 60 59 59 59 59 59 59 58 57 56 57 56 55 53 51 58 62 57 61 57 73 68 65 63 62 57 55 54 52 53 52 50 48 48 47 48 47 47
69 68 66 65 65 64 64 64 64 64 63 63 63 63 64 64 63 60 60 59 56 58 61 63 60 72 73 69 66 64 61 59 56 53 55 57 53 51 50 50 50 51 50
70 72 71 68 67 68 68 67 66 67 68 70 70 70 68 68 69 70 68 67 66 61 61 68 68 71 59 78 73 71 66 63 58 62 58 61 58 56 54 52 51 53 54
70 71 73 71 67 68 67 68 68 68 70 71 71 72 73 72 74 76 76 77 75 69 63 66 71 70 74 64 78 76 72 67 62 63 65 63 63 60 58 55 53 52 55
69 72 74 72 70 70 70 69 69 68 69 70 73 76 78 79 81 84 85 81 82 75 71 66 70 76 70 64 83 81 79 73 67 65 66 66 67 66 64 59 57 54 54
68 70 70 69 69 71 72 73 74 73 73 73 74 77 80 83 85 86 88 88 85 82 77 72 73 77 78 67 68 88 83 79 74 71 71 68 69 69 66 64 60 58 57
65 66 66 67 68 70 71 73 76 79 82 83 83 82 82 81 84 86 86 85 86 82 76 74 73 76 81 70 66 70 87 86 81 77 77 73 72 71 70 68 65 63 61
64 65 65 66 67 69 73 77 80 83 87 89 90 91 88 84 81 80 81 80 81 80 76 74 76 78 76 77 75 72 67 86 88 89 84 77 73 74 72 71 68 65 64
65 66 69 69 71 74 78 81 85 88 92 92 91 90 88 85 82 79 77 79 80 81 78 77 78 79 78 73 81 78 66 62 80 90 91 83 80 78 75 73 72 70 71
65 66 69 72 75 79 84 87 89 89 91 92 93 93 92 89 86 82 79 80 81 80 79 79 82 80 78 74 71 69 83 73 79 74 76 86 83 84 80 77 78 73 71
65 70 72 76 80 82 83 84 87 91 93 91 89 86 82 77 78 80 82 82 83 81 79 77 81 81 83 84 70 70 74 82 79 75 76 83 84 85 87 84 78 75 76
68 72 77 79 79 81 85 89 88 85 78 67 61 59 56 55 56 56 62 78 83 84 80 77 82 80 84 89 89 76 62 79 83 85 83 73 70 71 82 91 84 75 69
73 74 75 77 81 85 83 77 66 58 52 44 42 42 43 46 48 50 53 60 73 85 84 79 81 81 82 84 90 87 66 70 70 70 71 68 68 70 73 75 77 78 70
73 74 78 81 80 75 63 55 43 37 35 32 34 38 40 41 40 42 46 54 59 78 87 85 81 82 81 83 81 87 74 63 64 72 69 65 65 68 74 70 64 70 68
74 79 77 72 61 55 39 34 32 31 34 35 38 39 41 41 39 39 42 42 52 62 80 89 84 83 81 81 82 79 82 79 70 69 69 74 61 64 75 72 65 63 62
75 72 61 50 43 29 29 26 28 33 36 36 37 39 38 37 37 38 38 41 47 54 68 80 91 87 81 83 82 79 77 83 81 63 62 61 55 66 62 62 76 71 53
66 52 41 34 27 23 25 28 33 37 35 34 37 37 38 39 40 41 39 39 40 50 60 71 82 87 85 80 86 81 76 79 83 82 66 71 54 50 47 57 50 52 54
46 36 29 26 23 22 30 32 35 36 35 37 42 42 46 45 42 43 43 37 33 34 52 65 71 81 86 85 82 85 82 76 80 82 80 72 62 61 57 57 47 52 51
34 25 23 23 24 26 32 35 36 36 39 43 45 46 45 43 36 37 41 35 30 27 41 59 66 68 78 85 83 86 84 79 76 77 76 73 71 60 52 41 59 51 54

GFSMA_500_spd_003.txt.gz
Wind_Speed
30 31 30 29 29 31 33 35 37 48 41 59 54 48 50 59 65 58 58 58 54 53 57 60 55 54 55 50 46 44 43 41 41 40 38 37 36 36 34 32 31 29 29
36 38 37 37 37 35 34 34 31 33 27 41 67 55 53 54 72 58 59 57 58 57 47 49 58 59 55 53 51 47 45 44 42 41 39 38 37 36 35 34 33 32 30
40 39 39 39 39 41 40 37 37 32 34 35 38 40 48 62 51 53 55 61 60 63 64 56 55 51 60 57 54 51 48 48 46 43 42 40 38 37 36 34 33 32 30
45 45 45 45 43 43 44 44 42 39 37 33 34 37 39 36 45 35 53 59 59 60 59 58 57 56 49 60 61 56 53 52 50 47 45 42 40 39 37 37 34 33 31
53 52 50 49 48 47 47 46 45 45 43 40 38 35 35 36 38 36 40 37 43 48 55 58 62 56 55 57 64 63 58 55 53 52 49 45 43 42 41 39 37 37 34
58 57 57 55 54 53 51 49 49 49 47 45 43 42 40 38 36 40 41 41 41 42 49 51 56 58 59 57 64 65 61 58 57 55 52 48 46 44 44 43 41 39 37
58 59 62 61 60 60 57 54 53 51 50 51 49 49 46 45 45 41 43 44 43 49 47 49 53 56 55 53 60 59 61 61 60 59 57 52 50 47 47 45 43 42 41
67 64 63 63 64 63 63 61 58 57 55 54 53 53 52 51 49 48 46 49 51 47 51 51 50 53 53 55 59 64 64 64 63 62 59 55 55 52 49 48 46 46 45
70 72 68 68 65 65 64 61 60 61 61 60 59 57 56 56 54 51 50 50 52 54 54 49 51 51 53 59 59 63 62 63 69 65 63 60 55 52 50 52 50 49 48
73 72 73 74 73 68 63 60 63 63 63 61 62 62 60 59 58 58 55 55 56 57 59 59 56 52 54 52 58 57 61 67 77 69 66 62 58 55 54 54 54 53 52
69 70 71 72 72 72 70 62 62 64 63 63 62 62 61 61 61 61 62 60 61 61 63 63 63 61 56 55 57 63 61 64 73 74 69 65 63 60 57 55 56 56 55
66 67 66 67 68 68 69 64 61 62 62 61 60 61 63 64 64 66 66 66 67 65 68 67 67 66 66 61 59 63 70 60 73 73 73 70 68 65 62 57 57 59 58
64 64 64 64 64 64 62 62 60 59 59 59 61 61 61 64 67 69 70 69 70 68 69 69 69 70 69 69 65 62 72 76 67 80 77 76 73 70 68 62 62 62 63
64 63 63 63 62 60 60 59 58 58 60 62 62 62 64 64 65 67 70 71 74 73 70 71 74 75 77 76 73 69 71 75 72 71 83 82 80 76 72 67 65 65 66
64 64 64 64 62 59 57 58 58 59 61 64 66 69 70 69 70 70 70 72 76 78 78 73 77 81 82 84 81 78 74 80 75 75 85 86 84 82 79 73 69 68 66
62 62 63 62 59 59 60 61 62 63 67 71 75 77 78 78 79 77 76 76 76 77 81 81 81 84 86 82 82 80 78 81 77 74 82 87 87 88 84 81 73 73 69
63 62 60 59 59 61 62 65 69 74 78 81 80 79 80 81 82 82 82 82 83 81 80 75 79 79 81 82 82 81 79 82 81 80 78 91 96 94 90 85 79 77 74
60 59 59 60 61 64 71 75 77 78 78 79 80 82 83 82 80 78 76 73 73 78 83 80 77 79 80 81 83 84 89 88 76 78 81 83 94 101 95 92 85 82 79
57 59 61 64 70 74 75 75 76 79 82 83 83 81 77 68 63 56 54 53 54 53 59 70 76 81 81 78 83 85 92 90 81 82 76 74 91 102 104 99 92 90 85
59 61 68 72 73 73 75 78 80 81 82 79 71 62 54 47 43 41 41 43 46 50 53 55 59 71 80 78 79 83 88 94 90 83 79 71 81 82 91 103 99 95 91
64 70 71 71 73 76 78 78 75 67 60 50 41 37 36 36 37 37 38 37 39 43 47 50 53 58 73 79 79 77 81 85 88 88 79 67 70 78 85 83 94 100 96
70 69 71 74 74 74 70 59 50 39 35 31 29 30 33 36 39 42 44 43 43 45 43 47 47 54 59 70 77 77 76 77 86 91 79 68 57 63 73 77 78 74 77
68 70 72 71 68 57 47 37 32 30 28 28 30 33 37 39 42 43 45 43 43 45 44 46 45 44 54 60 70 76 77 76 81 91 96 77 65 56 62 61 66 71 73
69 69 65 58 47 41 33 29 31 30 33 35 37 39 40 41 44 45 43 43 43 44 45 43 42 44 47 53 63 77 80 77 79 85 83 94 65 62 64 53 49 53 59
64 59 51 41 37 31 28 31 32 35 37 38 41 44 45 46 48 48 48 49 49 50 51 49 42 36 44 52 58 72 79 80 77 78 78 88 88 69 68 54 51 47 52
55 45 38 33 30 27 29 31 33 37 38 40 41 35 36 37 41 47 49 49 49 51 52 53 42 37 41 51 57 66 78 80 77 76 73 76 76 70 64 66 57 54 54

GFSMA_500_spd_006.txt.gz
Wind_Speed
34 35 35 35 36 35 34 34 33 33 34 35 36 44 35 42 43 66 72 63 59 53 55 58 54 52 49 52 54 52 50 47 43 40 40 38 37 36 36 35 34 32 31
35 37 39 40 40 40 40 39 37 36 34 33 34 31 34 35 44 41 49 45 58 63 60 60 59 58 55 55 55 57 55 51 48 43 41 41 39 36 36 37 35 34 32
43 43 43 43 45 46 46 45 45 44 41 39 36 33 31 36 37 47 59 54 49 65 64 60 59 58 58 53 52 61 60 54 51 47 42 41 41 39 38 38 37 35 34
50 51 51 50 50 49 47 47 49 49 48 44 41 38 37 32 30 39 32 53 51 54 66 65 63 58 61 64 47 54 60 59 55 49 45 43 44 43 40 39 38 37 36
51 53 54 54 54 53 51 50 50 49 49 48 47 44 41 39 36 32 31 34 33 39 52 63 63 62 61 57 54 52 54 59 60 54 49 47 46 47 44 41 38 36 36
56 59 61 59 58 58 57 57 56 54 51 50 49 48 47 44 41 39 36 33 34 34 35 33 37 48 54 56 57 58 55 54 57 61 56 53 49 50 49 44 42 39 38
60 64 70 71 70 65 60 59 59 59 59 56 51 49 49 50 47 46 44 40 37 35 36 37 37 37 40 45 49 56 58 55 54 56 62 57 54 53 52 48 44 43 41
63 67 67 66 68 69 69 67 64 60 59 58 57 52 50 51 53 51 50 48 47 44 42 41 43 41 38 43 46 48 51 58 51 51 57 58 58 56 54 52 49 46 46
71 70 67 67 68 67 66 67 67 66 62 58 58 57 53 52 54 55 55 54 53 51 48 47 47 47 43 38 39 46 48 52 52 47 53 57 59 58 58 57 54 50 49
74 74 71 68 68 66 64 64 64 63 63 63 61 58 58 55 54 54 57 57 57 56 55 53 51 51 48 45 42 41 44 47 53 54 57 58 64 63 63 62 58 55 52
71 70 67 65 62 64 63 65 62 61 61 62 61 59 59 58 56 55 56 58 61 61 59 57 56 57 53 51 49 47 44 46 50 54 54 61 61 64 68 66 62 58 55
65 64 61 61 59 59 62 63 63 62 60 59 60 59 57 59 57 56 57 59 59 60 62 60 58 55 55 54 55 53 52 49 54 56 59 57 60 61 70 71 66 62 58
62 61 60 60 60 65 64 61 61 60 58 56 56 56 57 56 57 57 58 58 62 60 61 61 61 60 59 60 60 59 57 56 54 56 59 63 60 63 69 76 70 66 63
60 59 57 59 60 64 65 64 61 59 58 54 53 53 54 54 55 57 59 60 62 63 63 62 63 65 65 64 64 64 63 61 60 56 58 62 66 58 72 81 75 72 69
61 57 57 56 62 65 67 65 62 57 54 53 52 52 53 54 56 58 60 62 66 67 65 64 65 66 67 68 68 69 67 65 63 63 62 62 64 68 75 79 79 74 74
59 56 56 62 65 68 67 62 59 57 56 54 54 55 57 60 62 64 66 68 70 72 73 70 70 70 70 72 71 72 74 72 68 67 66 65 64 73 75 79 78 80 79
57 57 60 62 66 64 62 60 59 59 62 64 67 69 69 71 71 72 71 72 73 74 77 74 77 77 75 75 77 77 78 76 73 71 70 72 70 70 77 74 83 84 85
54 55 59 59 59 60 61 61 64 68 72 75 75 76 74 73 73 74 75 76 76 75 78 76 76 79 82 80 80 83 83 82 81 80 77 73 74 73 76 81 74 86 87
53 54 55 57 59 62 65 70 74 75 75 76 76 77 77 76 76 75 73 72 71 71 71 74 73 75 78 83 84 85 89 87 85 82 81 81 78 78 78 73 82 87 92
51 53 56 60 65 70 72 73 74 76 77 76 75 73 70 65 62 60 59 57 55 57 58 59 62 67 69 73 78 83 88 93 92 86 84 84 83 83 84 85 79 87 93
52 56 62 67 69 71 73 75 75 74 71 64 54 48 42 39 38 37 37 34 37 37 37 37 37 40 49 54 61 65 76 87 94 90 88 87 84 82 88 91 90 83 93
58 64 65 67 69 72 73 71 68 58 45 38 31 30 30 30 29 29 31 32 35 36 37 41 40 37 34 38 41 46 57 71 88 91 87 89 92 87 90 92 99 82 87
62 63 65 69 70 69 63 55 45 39 32 28 28 29 29 31 33 33 35 36 35 38 38 42 40 42 41 41 43 45 47 56 71 87 85 86 91 101 87 86 83 89 85
62 65 68 68 65 56 46 42 33 28 28 30 32 33 34 35 38 39 40 40 41 44 45 43 40 43 43 44 46 47 47 48 50 67 78 80 83 89 93 87 69 70 84
64 67 65 59 52 40 34 31 28 28 31 32 35 38 38 38 41 45 44 45 46 46 46 47 45 42 42 42 46 47 44 46 47 55 69 74 72 79 86 98 69 85 73
65 63 54 47 38 32 27 26 28 33 33 36 38 41 42 43 42 40 38 34 33 34 39 47 50 50 50 48 46 46 44 46 47 51 54 69 69 71 74 76 80 67 68

GFSMA_500_spd_009.txt.gz
Wind_Speed
34 35 36 36 37 39 38 39 38 37 38 38 34 33 32 32 27 32 40 48 60 64 61 58 56 54 53 51 54 53 51 50 48 46 41 38 37 37 38 38 35 33 33
36 37 38 39 40 42 42 42 44 44 44 42 42 41 37 33 31 31 36 46 49 57 67 66 59 58 57 54 53 56 50 46 51 52 49 44 40 38 39 41 38 34 33
38 39 40 40 42 42 44 45 46 47 48 49 47 45 44 42 35 35 34 41 41 46 51 59 69 66 59 59 59 58 56 54 53 56 55 51 44 39 39 41 40 37 35
41 43 44 45 47 47 48 47 46 47 49 49 51 50 48 44 44 43 38 37 38 36 50 54 62 61 74 62 66 62 61 56 51 56 57 56 50 44 41 41 41 40 37
49 50 51 52 54 54 54 55 60 57 50 50 52 53 52 50 48 47 46 42 42 41 40 50 58 53 62 64 64 65 59 61 56 52 57 59 51 49 44 43 42 42 40
54 54 56 56 56 59 61 62 61 61 60 55 53 54 54 54 53 52 50 50 46 44 40 41 45 57 59 67 63 73 64 64 59 60 51 59 56 53 50 46 44 43 42
58 58 59 61 62 65 66 65 64 64 64 63 61 56 57 57 57 58 56 54 52 50 45 42 41 38 47 62 69 74 67 67 65 58 55 55 56 58 54 50 48 46 45
60 60 61 65 68 70 71 67 67 65 65 65 63 61 58 59 60 61 59 60 58 54 52 49 46 42 42 39 39 43 50 61 62 61 57 49 50 50 56 58 54 51 48
63 66 68 70 72 71 70 67 63 62 63 62 64 63 60 59 60 60 62 61 64 60 57 56 54 51 46 43 42 44 43 45 49 56 58 58 48 54 54 59 60 57 53
65 68 70 72 72 70 64 60 59 57 60 63 62 59 60 60 60 59 60 63 66 66 64 62 61 59 57 55 53 51 49 48 46 51 55 57 60 59 61 52 55 59 58
66 69 71 72 71 67 62 60 60 59 58 57 57 59 58 59 61 60 58 60 67 69 69 68 66 65 65 64 62 60 56 53 49 48 51 56 56 59 58 51 61 60 59
68 69 69 67 63 60 59 60 59 58 60 61 61 58 58 57 57 61 61 59 63 70 72 72 72 72 71 70 68 65 64 61 57 52 52 55 61 58 61 65 53 60 58
64 65 65 63 61 60 59 56 60 64 62 67 66 62 60 57 56 58 59 60 62 64 71 74 74 75 75 75 74 72 69 66 63 58 56 56 57 61 62 67 68 52 66
65 63 63 63 63 59 56 57 63 65 64 66 68 65 64 58 55 55 57 60 61 64 65 70 74 75 77 78 79 77 75 72 67 65 63 60 62 61 65 67 70 67 58
63 60 59 60 62 64 65 64 63 63 66 66 67 67 60 56 54 53 54 58 61 62 63 64 70 74 76 78 79 79 78 76 74 70 69 67 64 65 64 64 59 66 62
60 58 59 61 62 62 63 63 62 63 65 66 62 59 57 57 55 55 55 56 57 60 63 62 64 68 74 77 78 79 79 80 79 77 75 74 70 68 69 68 69 65 69
59 58 60 59 58 57 59 60 63 63 62 61 61 62 62 62 62 63 64 66 66 67 65 64 66 69 70 72 76 79 81 82 83 82 80 78 76 74 71 71 70 73 60
59 57 57 56 55 56 57 58 61 61 62 64 66 69 70 71 72 71 71 71 72 74 75 71 73 72 72 74 75 78 80 82 83 84 84 84 82 79 78 75 73 76 74
55 53 53 52 53 55 57 59 63 66 68 69 70 71 73 74 74 74 75 76 76 77 78 78 79 79 79 80 81 83 83 84 86 85 87 86 87 86 83 82 79 77 84
51 50 51 52 54 56 61 65 67 68 70 71 71 71 71 70 69 69 70 70 72 74 74 76 77 78 82 85 88 88 88 89 90 92 91 90 90 90 89 87 83 82 80
48 49 51 54 58 61 63 66 68 69 68 67 62 57 53 50 49 46 45 44 48 52 57 62 66 69 72 76 82 86 90 90 92 93 96 96 93 91 93 92 89 88 86
50 52 56 57 59 62 64 66 66 63 58 49 41 37 32 30 30 30 30 30 32 32 29 29 33 45 53 59 68 74 79 86 90 89 92 95 97 98 98 97 95 92 89
52 54 55 58 61 63 64 62 57 48 35 28 26 23 24 25 28 29 30 30 30 31 32 32 28 28 31 33 38 40 51 67 77 82 88 96 99 99 101 101 99 96 93
53 54 57 60 62 63 59 53 39 26 24 24 25 28 29 29 32 33 32 33 35 35 34 33 33 37 39 40 41 44 46 44 42 55 70 86 93 102 103 103 101 98 99
54 56 60 61 61 57 50 34 25 24 26 29 32 34 35 36 37 39 38 37 37 40 40 39 39 41 43 45 45 47 48 46 41 39 42 46 66 88 102 102 103 101 103
56 59 60 58 55 51 35 24 25 28 30 31 31 33 36 38 39 40 41 40 36 33 33 34 35 38 45 47 48 47 47 45 43 45 44 41 43 49 72 93 96 101 101

GFSMA_500_spd_012.txt.gz
Wind_Speed
32 32 33 33 34 36 35 35 35 36 37 37 37 37 39 38 38 36 34 35 33 48 56 57 60 55 54 53 52 55 56 55 53 53 51 49 47 45 49 49 38 39 40
34 35 35 36 37 37 37 37 37 37 38 40 41 42 41 40 41 41 39 39 38 36 49 62 63 65 60 60 58 59 57 57 58 58 56 53 50 47 44 44 38 38 38
38 39 40 41 41 41 42 42 44 44 43 41 41 43 45 46 44 44 44 42 43 42 38 43 53 68 71 65 63 61 60 58 56 60 59 55 52 50 48 42 43 40 39
47 46 45 46 47 47 48 49 49 50 51 51 51 50 48 49 50 49 48 47 46 47 47 46 42 55 65 73 70 65 64 61 60 57 61 57 52 47 52 51 47 45 40
51 52 51 52 54 53 53 53 54 53 55 57 58 58 55 54 53 55 54 52 51 51 52 50 47 46 51 57 65 72 73 69 67 59 58 60 56 53 52 54 51 48 43
54 55 55 56 56 57 56 56 57 58 61 63 64 62 60 58 58 56 59 58 57 56 56 56 55 48 48 50 61 62 66 75 71 65 37 63 61 55 55 52 54 52 50
55 57 58 60 61 60 59 61 62 62 64 67 65 66 65 62 59 61 60 62 63 62 60 60 60 57 53 52 50 64 71 67 78 81 69 60 52 62 54 53 56 54 51
58 58 60 61 60 58 59 62 63 64 65 66 67 67 65 62 62 61 62 65 67 67 66 65 64 64 60 58 54 56 60 82 72 77 76 67 58 66 67 54 59 59 56
61 61 61 61 63 62 61 63 65 66 66 66 67 67 66 65 61 60 62 64 69 72 72 70 69 68 67 63 59 59 59 73 74 74 72 70 77 51 52 59 57 61 63
61 61 62 62 62 65 66 67 68 68 63 61 64 65 68 69 67 64 56 59 65 70 73 76 75 73 71 71 67 60 55 58 60 75 79 74 71 70 66 55 60 62 63
58 60 63 65 66 65 66 69 72 70 65 63 63 65 66 66 67 68 64 57 57 64 68 73 79 77 77 76 73 68 60 52 53 59 58 62 74 77 71 67 49 57 63
60 60 62 63 65 68 69 70 69 68 69 69 69 70 65 62 60 63 64 59 59 58 62 68 74 80 80 80 79 76 70 66 63 59 57 58 60 63 66 66 71 57 56
68 67 66 66 66 67 65 66 68 67 70 72 72 70 71 69 64 63 66 63 62 60 61 62 70 76 81 83 83 82 79 75 72 66 65 63 60 60 65 71 66 66 67
69 69 67 67 64 61 64 67 67 69 70 71 72 73 73 71 67 65 67 68 64 59 61 60 64 72 77 82 86 87 86 83 79 81 74 72 68 65 65 67 68 62 54
69 68 66 65 62 60 65 67 68 67 68 68 68 67 66 67 66 66 67 67 64 58 55 58 60 67 72 78 86 90 90 89 88 85 82 79 76 71 69 66 68 70 67
71 68 63 61 62 65 67 66 65 68 68 66 66 66 65 66 68 68 65 62 59 58 55 55 56 60 68 75 82 88 92 92 92 91 88 86 83 78 74 73 70 72 72
70 65 62 62 62 64 67 68 68 67 66 64 64 64 63 64 65 65 65 63 61 61 59 59 59 59 62 69 76 82 88 95 94 94 94 91 89 87 84 79 76 76 80
67 63 60 59 59 61 61 62 63 62 61 61 62 64 64 67 68 69 70 70 69 68 66 65 64 63 63 65 70 76 82 88 95 97 96 95 95 92 90 87 83 80 81
63 59 55 54 54 56 58 59 59 59 60 61 63 64 66 68 69 71 73 74 74 74 73 73 70 72 72 71 70 72 77 81 88 94 99 98 98 98 96 93 90 87 84
56 53 52 51 52 53 54 56 58 59 60 62 65 67 68 69 69 70 70 71 72 73 73 75 77 77 79 79 79 78 76 78 81 88 94 98 101 100 100 99 95 92 89
50 49 49 50 51 54 56 56 59 61 62 61 60 60 60 60 58 55 54 53 56 58 61 66 68 74 76 81 85 84 83 84 83 84 88 92 97 100 100 101 99 98 95
49 49 50 51 55 54 55 58 61 59 56 54 51 43 40 37 35 33 32 33 33 33 31 34 40 50 61 72 78 84 87 88 88 89 89 88 91 95 100 102 102 101 100
48 48 51 53 53 54 57 59 57 54 51 39 31 27 26 27 29 30 30 30 29 29 28 29 26 28 31 39 54 68 79 85 89 90 92 93 92 90 92 96 101 104 103
47 50 51 52 53 56 58 55 52 46 31 25 25 27 31 32 35 35 33 33 33 32 33 34 35 36 35 36 37 39 53 71 80 85 88 92 95 96 98 98 99 100 103
50 50 51 53 55 55 54 51 43 27 20 23 29 34 35 35 36 38 39 39 38 37 37 37 36 37 38 38 39 40 37 36 45 63 75 83 88 92 97 100 102 104 104
51 51 53 54 53 51 49 41 27 19 21 27 29 30 32 33 33 31 29 27 26 33 38 38 38 42 41 43 44 44 44 40 40 40 43 47 60 68 82 90 96 105 107

GFSMA_500_spd_018.txt.gz
Wind_Speed
35 36 37 38 38 39 40 41 42 42 41 41 39 39 38 36 34 34 35 34 32 35 35 35 37 38 40 41 54 53 57 57 56 55 54 52 51 49 48 47 46 44 44
39 40 41 43 43 44 44 43 42 43 44 44 44 43 44 43 42 40 38 39 39 38 36 38 42 44 45 47 47 55 55 58 56 59 58 57 55 53 52 50 49 48 48
45 46 46 45 46 46 45 44 45 47 47 47 47 47 46 47 48 47 46 44 43 44 43 42 42 43 47 51 48 45 58 59 58 59 60 61 59 59 57 54 53 51 47
46 46 48 48 47 47 47 48 50 52 53 53 53 53 52 52 52 52 52 51 49 48 48 49 48 48 47 47 51 49 48 62 63 63 60 61 60 60 59 58 58 55 51
51 52 52 51 52 54 54 56 56 56 55 55 55 56 57 58 57 56 56 56 55 53 53 54 56 54 52 49 50 54 53 55 56 68 67 66 63 62 60 60 60 60 59
54 55 56 58 59 59 58 59 58 58 59 59 59 58 58 59 58 57 57 58 60 61 60 59 58 59 58 57 53 56 59 59 60 59 60 67 70 75 57 61 64 64 64
56 57 58 59 61 61 60 60 59 59 59 58 58 57 58 59 59 59 60 62 63 64 63 61 59 58 59 60 60 58 61 64 64 63 63 56 68 78 73 75 55 66 69
62 63 63 62 61 61 61 62 61 59 56 55 57 59 59 60 62 63 64 65 65 64 63 62 60 60 60 61 63 64 64 66 68 68 67 64 65 68 83 76 61 68 60
59 60 61 62 63 64 64 65 65 65 63 62 59 60 62 62 61 62 63 65 67 65 64 63 62 62 62 63 64 66 68 69 71 73 72 71 67 67 77 88 79 71 72
58 59 61 63 64 66 67 68 69 68 68 67 67 63 61 62 63 64 64 64 66 68 67 67 65 64 64 65 67 70 71 74 75 76 77 75 72 70 65 82 83 75 48
62 63 65 67 68 69 69 68 69 68 69 67 67 67 61 62 62 65 64 62 61 63 65 66 68 68 68 67 67 69 74 78 80 80 82 80 76 74 69 67 75 82 81
67 69 72 74 75 75 74 74 72 70 68 64 62 62 63 64 65 65 66 64 64 62 60 60 62 67 70 71 72 71 72 78 83 86 85 86 82 80 76 75 66 76 77
75 74 76 80 81 79 77 75 72 70 68 65 63 62 59 66 68 69 68 69 70 67 65 59 58 60 65 70 71 72 73 75 81 85 88 89 90 84 83 78 83 71 67
79 82 82 79 78 77 76 72 68 66 65 63 62 57 55 64 62 60 67 66 74 72 72 68 63 61 61 64 69 71 72 73 76 81 82 85 91 91 86 85 82 80 79
82 83 82 81 79 76 73 70 66 66 62 60 55 60 60 67 71 68 75 80 80 80 77 76 68 65 62 61 63 66 70 72 76 78 80 81 84 91 91 90 89 77 78
85 87 86 87 84 77 69 64 64 61 57 59 53 59 70 75 77 79 79 80 84 85 79 71 67 61 59 60 60 63 66 70 74 78 80 80 80 86 91 92 90 89 83
85 86 89 83 78 72 59 60 57 56 58 55 56 60 69 75 75 76 77 77 76 75 73 65 64 60 57 58 59 62 65 69 72 76 78 80 78 80 87 90 92 91 87
88 85 80 76 61 55 54 53 52 53 51 51 53 56 59 61 62 63 64 65 67 69 71 67 64 64 62 60 59 60 61 62 66 70 75 78 77 76 80 86 90 92 87
84 74 67 53 48 49 48 49 48 49 50 50 52 53 55 56 58 62 63 63 64 66 68 69 66 67 67 66 64 63 63 63 63 65 67 70 73 73 77 81 87 91 87
74 55 45 42 43 46 47 48 49 48 46 47 49 52 55 56 58 60 63 65 66 67 67 68 67 66 69 70 71 71 70 69 65 66 67 67 69 69 73 78 83 86 96
50 44 45 47 50 52 54 55 50 46 47 50 52 53 55 58 60 62 62 62 63 63 64 65 64 60 64 68 70 73 73 72 71 68 69 69 68 68 67 73 77 83 88
41 46 49 50 50 49 48 46 46 47 49 50 51 54 55 56 58 58 58 58 53 43 35 34 33 32 32 37 47 62 70 73 71 72 71 70 71 69 67 68 73 79 84
43 46 48 48 46 44 43 44 47 49 49 51 52 51 51 52 51 47 38 34 34 36 39 40 39 38 36 36 34 36 45 56 64 67 72 70 71 71 71 68 69 74 79
44 44 44 45 44 44 46 48 48 48 49 49 49 48 46 42 36 32 33 37 40 43 45 45 43 41 40 39 38 34 32 33 41 52 63 68 72 72 75 74 71 70 73
45 44 45 47 48 49 49 49 49 47 47 46 45 43 37 29 29 35 36 35 34 35 40 40 38 36 36 42 40 38 36 34 28 29 41 57 63 71 74 75 75 73 71
50 50 51 53 53 52 52 51 48 45 42 40 38 33 27 27 31 33 33 32 30 29 31 33 29 26 24 25 35 43 40 37 34 34 36 33 42 57 67 73 77 78 77

GFSMA_500_spd_021.txt.gz
Wind_Speed
38 38 39 40 41 41 41 40 39 38 38 37 37 38 38 39 40 40 39 37 34 32 33 33 33 36 36 33 34 44 46 54 52 56 52 50 50 48 47 46 46 44 42
38 38 40 41 42 42 42 43 43 42 40 40 40 39 40 41 42 42 43 43 42 41 38 38 38 37 39 40 40 40 42 40 41 47 54 55 56 54 52 51 51 49 46
39 40 41 42 42 42 43 43 42 43 44 44 45 46 47 47 46 46 45 46 47 47 46 45 44 44 43 43 43 44 47 48 52 46 54 59 60 60 59 56 54 52 50
45 44 44 44 45 45 46 48 49 49 50 50 50 49 49 50 50 50 49 49 50 51 52 51 51 50 50 50 51 49 50 50 52 53 48 59 59 65 63 62 59 57 56
51 50 49 49 49 49 50 51 51 51 50 50 51 51 50 50 52 54 54 53 53 55 57 58 56 56 56 55 55 56 56 55 54 52 51 51 60 59 60 63 64 62 59
52 51 51 51 52 53 54 54 54 53 52 52 52 52 52 52 53 54 55 55 56 56 57 59 61 60 61 61 60 60 59 59 57 55 55 53 53 58 61 61 60 61 63
56 57 57 57 58 58 58 57 57 57 57 57 58 57 56 55 55 56 56 56 56 56 57 57 60 62 63 63 65 64 63 63 62 61 59 58 58 58 58 61 64 63 61
56 56 58 59 59 60 61 61 61 62 62 61 64 63 61 59 59 59 61 61 61 61 61 60 59 60 62 62 63 63 64 65 66 65 64 62 63 62 64 61 61 66 66
60 59 58 60 62 63 64 65 65 66 67 66 64 67 66 63 59 58 60 63 64 65 65 65 63 62 63 64 64 65 65 65 66 67 69 68 67 67 67 67 66 64 67
61 61 63 64 64 66 67 69 69 71 70 72 70 67 69 64 63 61 60 62 65 66 65 68 69 68 67 66 67 67 68 68 67 67 69 71 72 72 72 72 72 70 67
63 66 68 69 71 72 72 72 73 72 74 71 71 67 66 68 66 63 63 65 64 66 67 68 69 70 70 69 70 71 71 71 72 72 71 72 74 75 76 77 76 76 73
73 73 74 76 78 80 80 79 78 77 73 71 71 70 68 66 64 64 64 68 68 65 67 69 69 70 69 70 71 72 73 74 73 74 75 75 77 78 78 79 79 78 78
79 79 80 82 83 82 82 80 80 80 79 77 74 70 68 67 64 65 64 66 68 68 65 62 66 69 70 67 66 71 74 76 77 77 77 79 80 82 82 82 81 83 81
79 83 86 86 86 84 83 80 78 81 81 78 72 69 66 67 67 65 66 65 66 68 69 69 65 66 68 67 67 67 68 73 78 80 79 79 82 85 86 86 85 85 87
84 84 84 86 87 88 86 83 84 81 77 75 69 67 64 57 62 58 64 69 73 68 67 67 69 69 67 70 72 70 68 71 77 81 84 84 83 85 87 89 88 87 88
86 89 91 91 88 86 83 81 77 71 66 64 62 56 54 55 60 65 68 71 73 76 74 71 70 69 70 75 78 78 77 74 76 80 82 86 86 86 87 90 90 90 88
91 91 91 87 82 75 69 67 59 54 52 48 46 47 49 51 57 61 67 68 74 79 81 77 80 81 78 75 73 71 69 68 68 73 79 81 83 85 87 88 93 92 90
90 91 85 76 66 57 51 49 46 48 46 47 47 47 47 49 52 56 60 64 67 70 73 74 67 66 64 63 63 64 64 64 64 66 70 74 79 82 85 87 90 95 90
86 75 66 58 45 41 41 42 43 44 45 46 47 48 51 51 52 54 55 56 56 58 61 63 60 61 62 61 61 62 63 63 65 66 67 70 74 78 81 84 86 89 90
67 60 51 43 42 45 45 46 48 49 51 51 50 48 46 46 48 51 52 54 55 57 59 62 62 62 64 64 64 65 66 67 67 68 67 67 70 72 76 79 80 82 84
56 48 43 43 45 48 49 50 50 48 46 44 44 45 47 49 50 50 50 52 54 57 58 60 60 59 60 62 63 63 65 68 70 71 70 69 69 70 70 72 76 78 79
48 46 45 45 46 46 47 47 45 44 43 43 44 46 47 48 50 50 51 53 53 53 54 56 53 47 41 40 39 41 45 50 59 71 74 71 71 70 69 69 69 71 73
50 48 46 44 44 44 44 44 44 43 43 45 46 46 47 47 47 48 47 47 48 44 35 33 32 33 34 38 39 39 39 38 37 42 57 69 71 70 71 70 68 67 67
49 48 48 49 49 50 50 49 48 48 48 48 47 47 45 44 45 43 42 37 29 32 38 41 40 39 40 41 42 44 44 40 39 39 39 43 57 64 69 71 70 68 67
52 54 55 56 56 55 56 55 53 51 50 49 46 44 42 39 38 36 27 25 30 33 36 36 34 31 31 34 37 40 40 44 41 40 37 35 39 46 59 66 70 70 68
58 59 58 57 57 55 55 53 51 50 47 43 40 38 35 32 27 23 23 24 24 29 29 29 27 25 25 25 26 27 27 32 42 42 42 38 35 39 44 56 66 70 70

GFSMA_500_spd_024.txt.gz
Wind_Speed
33 33 34 35 37 37 37 37 37 37 38 39 41 40 39 38 37 38 38 38 37 37 37 35 35 35 35 36 35 35 34 40 45 44 47 45 53 48 49 47 46 44 44
37 39 40 40 40 41 41 41 40 40 40 40 39 40 41 41 42 42 43 42 42 42 42 42 42 41 41 41 41 39 38 38 39 50 51 50 53 53 53 51 49 48 47
42 44 43 43 43 41 40 41 41 42 42 43 44 45 46 46 46 47 48 47 47 46 47 47 48 47 47 46 46 46 45 42 41 42 45 42 40 45 57 57 54 53 52
49 47 45 45 44 42 41 42 42 42 43 44 45 47 47 48 48 49 50 50 51 50 51 51 51 52 52 51 51 52 51 50 48 48 48 46 45 44 42 57 58 58 55
49 48 47 47 47 47 47 49 49 48 48 47 48 48 48 47 48 48 49 50 52 54 55 55 55 55 57 58 57 57 58 57 54 54 53 53 53 51 51 51 55 59 60
51 51 51 53 55 56 57 58 56 55 53 53 54 54 53 53 53 52 51 51 52 53 56 60 60 61 60 62 63 63 62 62 61 60 58 56 56 55 55 54 56 60 59
56 56 57 57 59 61 62 62 62 62 62 61 61 61 61 60 58 58 56 56 57 56 57 59 62 63 63 65 65 66 68 67 67 66 65 63 62 59 58 58 56 61 63
58 59 61 62 63 63 64 64 64 66 67 65 66 65 66 67 67 61 61 60 60 63 62 60 63 65 65 63 64 67 68 71 71 71 69 69 68 65 62 61 60 60 63
62 64 65 68 69 67 67 67 68 69 69 70 71 70 71 72 73 74 71 63 64 66 67 65 62 66 67 67 66 65 67 69 72 75 75 73 71 70 67 66 64 64 63
65 67 68 69 71 72 73 74 73 73 73 73 76 77 74 71 69 71 71 68 64 64 68 70 67 66 68 68 68 69 68 69 71 73 76 78 78 75 74 72 71 68 68
73 75 75 77 77 77 77 77 76 76 79 79 77 76 75 76 70 70 69 70 72 69 69 68 72 71 70 70 70 71 70 70 71 73 75 77 79 79 77 77 76 74 71
78 80 81 80 79 78 78 79 81 81 80 81 80 79 77 73 73 71 70 66 68 73 70 67 70 74 74 74 74 73 72 73 72 73 75 76 79 81 81 79 79 79 77
79 80 81 82 83 84 84 82 81 83 83 85 82 81 79 76 74 73 71 70 69 71 72 70 70 73 75 78 78 78 77 77 76 74 75 78 79 80 82 83 83 81 81
79 81 83 84 84 85 87 86 86 87 88 87 86 85 82 78 74 72 71 71 72 72 70 70 72 74 74 74 75 77 76 78 77 77 78 78 78 81 83 84 85 86 83
82 82 84 87 88 90 91 92 91 87 86 84 82 80 77 74 71 71 69 65 69 66 65 66 72 75 73 73 76 75 75 73 73 74 77 79 80 80 82 85 86 87 87
82 86 88 90 91 91 88 83 77 72 68 68 66 66 61 53 49 49 54 59 63 69 67 69 70 70 71 72 77 74 74 72 72 73 74 79 81 84 85 86 87 88 89
86 89 87 88 81 74 69 64 59 55 53 52 50 48 47 46 47 49 58 61 62 65 67 65 68 70 70 70 72 76 76 78 79 81 80 80 81 82 88 90 89 88 89
91 90 82 72 67 60 54 49 47 45 46 48 50 49 47 47 48 48 50 51 56 63 72 76 73 72 72 73 73 75 75 76 78 81 83 83 85 87 87 90 93 92 89
88 78 69 60 52 47 46 46 47 48 48 47 48 48 48 49 48 49 50 51 51 53 56 59 56 59 62 64 66 69 72 77 79 77 77 80 78 80 79 82 86 90 94
73 65 54 49 47 47 47 48 49 50 50 51 50 49 48 47 46 46 45 44 45 47 50 53 52 51 56 58 60 61 64 66 68 70 71 72 72 73 74 75 77 80 83
58 53 51 50 51 50 47 45 46 46 47 47 47 46 46 45 44 44 43 44 45 47 50 53 52 52 54 57 59 60 63 65 66 68 69 70 70 71 72 74 74 75 76
53 53 52 51 51 51 49 50 48 48 47 47 47 47 45 43 42 42 42 43 47 48 49 49 48 47 48 52 53 54 56 58 61 65 65 66 71 71 71 72 72 73 73
51 52 53 54 55 56 54 54 53 53 52 51 50 50 49 47 46 45 45 46 46 45 44 44 44 41 38 37 38 37 36 37 38 42 49 54 61 67 71 72 73 72 72
52 54 57 58 58 58 56 55 53 52 51 52 52 51 49 47 46 44 42 41 39 38 39 36 32 33 36 39 41 42 43 45 44 44 45 42 43 42 49 66 74 73 72
54 57 60 60 58 55 54 53 51 50 48 46 44 44 45 44 41 39 37 33 30 25 27 32 34 34 33 36 37 38 37 41 44 46 47 48 46 43 43 39 50 68 72
55 59 60 57 53 49 48 47 45 43 40 37 36 35 35 33 31 30 26 20 19 23 22 24 25 24 24 28 31 32 34 32 33 36 41 45 47 46 44 42 38 45 61

GFSMA_500_spd_027.txt.gz
Wind_Speed
35 35 35 37 39 41 41 39 40 40 38 39 40 41 41 39 37 37 39 34 38 39 38 38 39 38 38 37 36 35 34 33 34 28 32 33 43 43 42 47 45 40 43
39 40 41 42 45 46 42 42 42 41 40 39 39 39 42 43 43 42 44 42 42 42 42 42 42 43 43 43 42 41 41 39 36 36 32 34 38 47 51 45 45 47 47
43 44 44 45 46 43 42 41 41 41 40 41 42 43 43 45 45 44 45 48 45 47 46 47 47 47 47 48 48 47 46 45 43 40 39 37 35 41 45 46 52 49 47
45 45 46 45 44 45 44 45 45 46 46 47 47 48 48 47 48 47 47 48 49 46 47 49 49 50 51 52 53 52 51 51 49 47 45 44 42 39 39 43 43 54 52
46 47 48 49 49 51 53 53 53 54 53 52 52 53 51 51 51 51 52 51 51 52 50 48 51 51 52 54 56 58 57 57 55 54 51 50 48 46 42 41 35 38 51
51 53 55 57 58 59 60 60 62 62 64 63 63 62 61 61 61 60 59 56 57 56 55 58 51 54 55 54 57 59 61 62 61 61 58 56 55 54 52 47 46 48 46
55 57 60 62 62 63 64 65 65 66 67 68 68 65 67 66 67 67 64 63 63 63 60 59 62 58 57 58 59 59 62 64 66 65 64 64 61 59 58 56 55 53 51
58 60 63 67 67 66 67 69 70 71 71 71 68 66 67 70 71 69 71 67 67 66 67 65 65 64 66 62 61 62 62 63 66 69 69 68 68 67 64 62 60 59 57
64 68 69 69 69 71 74 75 76 76 76 74 74 71 70 67 67 68 72 77 73 69 63 68 71 69 66 68 70 64 65 65 66 67 71 73 73 73 72 70 67 64 62
64 68 71 73 74 76 78 78 78 79 79 77 76 75 75 72 69 70 69 69 74 72 71 63 66 71 70 67 67 72 68 67 68 68 70 71 75 76 76 76 74 71 69
70 72 73 74 75 77 78 79 80 81 81 81 80 79 77 74 73 75 74 71 65 75 73 73 71 69 71 73 72 72 72 68 69 70 72 72 72 75 77 77 78 77 75
73 73 74 76 78 80 81 81 81 82 81 83 84 84 85 83 80 79 78 78 77 69 71 71 73 76 73 71 72 75 74 73 72 73 72 74 73 74 76 77 78 79 79
73 73 74 75 77 79 80 81 83 84 85 85 87 87 88 88 86 84 82 81 80 74 75 72 72 76 76 76 73 75 76 76 75 76 76 75 74 75 76 77 78 79 79
75 78 79 80 81 80 83 85 84 86 85 86 88 89 89 87 83 80 77 76 76 75 75 74 74 77 79 80 80 74 75 79 78 78 76 77 77 75 75 76 78 78 80
81 84 88 87 85 84 84 84 82 77 76 73 74 73 69 67 66 65 64 66 71 73 71 73 76 75 79 81 82 80 76 78 79 78 78 78 78 78 78 77 78 79 79
87 88 88 87 86 83 80 75 69 65 61 58 55 55 52 48 48 49 45 47 50 51 49 53 60 63 70 76 80 75 77 73 76 75 75 74 76 77 79 80 81 80 80
87 89 89 87 81 74 67 59 53 50 48 47 48 49 50 50 51 52 52 50 50 59 57 55 59 61 59 64 70 74 76 75 77 78 77 78 76 77 78 80 81 82 82
89 87 86 77 66 57 51 48 46 46 46 46 47 49 50 51 48 47 48 47 47 51 53 61 62 56 63 69 68 69 68 73 73 75 77 75 80 74 75 80 82 82 83
86 84 74 61 52 49 48 48 47 48 47 48 48 48 49 50 49 48 45 45 46 47 49 52 52 55 57 59 65 71 74 68 68 73 78 81 80 83 78 81 82 83 84
80 71 58 54 54 52 51 51 52 51 51 50 48 48 48 47 47 46 46 45 45 45 46 46 45 46 50 55 59 61 63 67 70 74 79 79 81 82 80 78 82 84 86
68 57 52 53 53 54 54 54 55 54 54 53 53 52 51 50 48 47 44 43 44 44 44 43 40 41 44 48 52 55 58 61 62 65 67 68 70 74 78 81 82 88 89
58 52 51 52 54 55 56 57 58 56 54 52 51 52 53 53 52 50 48 45 43 41 41 41 41 43 47 50 51 53 55 57 59 63 65 65 69 69 70 70 70 70 71
52 50 51 54 55 58 59 60 58 55 52 50 48 47 47 48 50 51 49 46 45 44 43 44 44 45 45 45 46 47 48 51 53 56 60 61 65 67 68 71 71 73 72
50 50 53 55 56 62 62 59 55 51 48 46 45 44 43 42 43 44 44 44 42 41 41 42 40 38 37 36 36 37 37 39 40 40 43 46 50 57 64 67 69 70 71
49 51 54 55 59 62 59 54 51 48 44 42 41 40 40 38 37 36 34 35 35 34 35 32 30 27 29 31 34 38 37 42 41 42 46 48 49 47 46 45 50 58 62
49 51 53 57 60 57 52 48 47 44 40 38 36 36 35 33 29 27 26 25 25 26 25 23 21 20 21 23 25 28 31 33 34 35 38 43 42 47 49 50 48 46 44

GFSMA_500_spd_030.txt.gz
Wind_Speed
39 39 37 37 39 40 41 41 43 40 38 36 35 35 36 37 38 39 40 38 35 37 36 36 37 39 40 40 40 39 37 36 33 30 26 21 22 28 35 46 43 38 46
40 40 41 43 43 42 42 41 40 40 39 38 37 36 36 38 39 38 39 41 39 41 42 42 41 41 42 42 43 44 43 42 40 38 33 29 25 26 28 38 40 33 47
44 44 45 45 44 42 42 43 43 44 44 45 45 45 45 43 43 46 44 44 44 42 44 45 45 45 45 46 47 47 47 48 46 45 42 38 33 30 33 34 36 44 39
48 46 45 45 44 44 46 47 49 50 50 50 50 50 50 50 50 48 47 48 49 47 46 47 48 47 48 49 49 50 51 51 51 50 49 45 43 39 37 36 36 40 41
48 46 48 48 49 52 54 55 56 56 58 57 57 57 58 58 59 59 57 54 51 55 55 51 52 53 53 52 52 52 53 54 54 54 54 52 50 48 44 41 37 35 37
50 51 53 55 56 57 58 61 62 62 63 62 62 63 63 65 67 67 67 65 63 61 58 61 59 56 56 58 56 55 54 56 56 57 57 57 56 53 51 48 43 41 41
53 55 56 58 60 63 65 67 67 66 66 67 68 66 66 66 67 68 69 70 70 68 67 66 64 64 61 60 62 59 59 58 57 58 60 60 60 59 57 55 52 49 46
57 59 61 64 66 67 68 68 69 69 69 69 70 72 71 69 68 68 70 68 68 71 71 71 70 64 62 63 63 63 62 62 61 59 59 62 63 63 62 61 59 57 54
65 66 69 69 69 70 71 72 73 74 75 72 72 74 76 76 75 69 66 64 62 62 62 63 69 68 64 64 64 64 64 64 64 63 62 61 63 65 66 66 64 63 61
66 68 70 71 73 74 75 75 74 71 71 72 72 74 75 76 76 76 71 68 67 66 64 60 65 61 61 65 66 64 63 63 64 65 66 64 64 65 66 67 68 67 67
69 71 71 73 74 74 75 77 78 78 77 79 77 77 77 78 81 84 80 77 73 71 67 61 65 61 67 67 74 68 66 65 65 63 65 67 67 67 67 68 70 71 70
72 72 73 73 75 76 78 79 81 82 82 81 81 83 83 82 81 87 88 85 83 80 75 70 64 59 68 63 66 76 73 69 68 67 66 68 68 70 70 70 71 71 72
73 75 74 75 78 80 81 81 82 83 84 84 84 84 85 86 87 87 90 88 84 84 83 76 73 71 71 67 72 85 84 80 69 68 68 70 70 70 71 71 71 73 73
73 74 78 82 84 82 81 83 83 83 83 83 80 78 77 78 77 75 74 72 68 68 70 73 74 72 74 73 83 75 81 87 81 73 70 71 72 71 72 74 74 73 74
77 81 82 81 80 81 82 83 82 80 73 67 62 61 58 58 57 55 50 43 44 45 43 45 58 67 73 77 73 85 77 88 85 81 74 75 74 74 74 74 76 76 74
83 82 83 82 82 83 80 77 71 64 56 51 48 47 46 47 47 45 44 43 43 48 44 45 43 44 52 62 70 71 79 84 81 82 80 78 76 77 77 75 76 77 78
85 84 85 83 81 78 73 64 54 49 48 48 47 47 47 48 48 47 47 47 48 47 48 45 49 49 47 51 59 69 70 72 75 76 78 76 77 76 76 76 75 76 76
82 83 82 78 74 69 60 51 47 47 47 48 48 48 48 48 47 48 47 47 47 47 45 42 45 47 53 52 50 57 56 59 63 67 69 72 71 71 71 74 74 73 75
81 77 74 70 66 59 53 51 49 50 50 50 52 53 53 52 51 50 49 47 45 44 44 42 39 42 49 52 53 56 57 57 65 64 59 62 64 65 68 70 73 74 73
76 72 68 64 57 52 50 49 51 53 52 53 54 54 54 54 54 53 52 50 47 43 42 41 40 39 42 46 53 55 55 60 63 63 64 67 69 66 63 67 69 74 78
70 65 61 54 51 50 50 51 53 54 56 57 57 54 51 50 51 52 52 51 50 47 43 40 37 39 41 44 47 50 54 57 57 58 60 61 63 68 69 66 68 74 76
63 58 53 49 49 51 52 53 54 58 60 58 53 50 48 46 45 47 49 47 49 49 46 41 38 36 38 40 41 44 46 49 51 55 57 58 61 60 62 67 71 76 77
55 50 48 47 49 52 53 54 58 59 56 51 48 46 43 42 42 43 43 44 43 45 46 43 39 38 37 37 40 42 44 47 49 51 54 55 59 60 61 62 62 64 66
49 48 45 46 50 52 54 57 56 52 48 45 44 43 41 38 38 39 37 36 37 36 38 40 39 37 38 39 41 42 44 46 47 48 52 51 54 55 59 59 60 61 62
46 43 42 47 50 51 56 55 49 46 42 40 39 39 38 36 34 33 31 28 28 29 30 32 32 32 33 33 35 33 33 36 35 37 41 44 45 48 51 53 56 58 61
40 36 43 48 48 52 52 48 44 40 40 41 38 36 34 32 29 27 25 20 19 23 23 23 24 24 22 22 24 25 26 28 29 31 38 45 44 47 47 48 48 47 46

GFSMA_500_spd_033.txt.gz
Wind_Speed
38 41 41 43 42 40 40 40 39 37 35 34 33 31 32 36 35 34 34 34 33 33 35 36 37 37 38 37 38 38 39 39 38 35 33 30 27 27 24 24 24 38 36
41 43 43 45 43 41 40 39 38 37 37 37 39 41 40 37 37 40 39 38 39 38 38 39 39 40 41 42 42 41 41 41 42 42 40 37 34 29 30 25 21 24 34
45 46 46 45 41 39 39 39 40 42 43 44 46 46 46 45 44 42 44 46 42 42 42 43 43 43 44 45 46 46 46 46 45 45 44 43 40 37 33 29 26 27 26
45 46 45 44 45 45 46 47 48 50 51 53 54 54 54 52 51 49 47 47 48 50 48 46 46 48 48 48 49 50 49 49 49 49 48 47 46 44 39 36 34 33 32
45 43 44 47 48 50 52 53 55 57 59 59 60 60 60 60 59 57 56 55 54 54 53 54 53 52 53 54 53 52 53 53 52 52 53 53 51 50 48 44 41 40 35
49 50 52 54 54 56 56 58 60 61 61 63 64 64 63 63 63 64 64 64 63 61 59 59 60 60 59 59 58 56 56 56 57 55 55 56 56 55 52 50 47 45 42
54 56 56 57 59 60 62 63 65 66 67 69 70 70 70 70 69 67 67 67 68 69 69 65 64 65 63 63 62 63 62 60 60 60 58 57 58 59 58 56 54 53 51
57 59 61 62 64 66 68 69 71 73 74 76 77 76 75 72 72 71 70 70 71 72 73 74 73 71 73 70 66 66 66 66 65 65 63 62 61 61 63 62 60 58 57
62 64 67 70 72 73 74 75 76 76 75 76 76 79 80 81 80 77 75 74 72 72 71 72 74 75 72 68 65 66 65 66 66 66 67 65 64 64 64 65 64 63 61
64 66 69 72 74 76 78 78 79 79 79 78 77 78 80 82 83 82 77 75 74 73 73 72 70 62 59 64 61 60 61 66 67 67 69 68 66 65 66 66 65 65 65
68 71 72 73 76 77 77 78 78 79 81 82 83 83 81 80 83 85 80 78 77 78 78 77 78 75 72 65 62 58 56 64 65 66 65 65 66 68 67 68 68 66 66
72 72 73 75 75 76 77 79 80 82 81 81 80 81 82 82 83 86 87 85 82 80 83 85 83 80 78 75 69 61 61 59 61 63 62 66 65 64 67 71 72 71 68
78 81 78 76 75 77 80 81 81 81 80 80 81 81 81 82 83 83 85 84 85 84 83 86 86 85 82 79 74 74 76 51 61 70 65 69 70 68 67 69 73 74 73
81 80 76 76 79 82 82 81 79 81 80 80 79 79 77 73 72 71 70 69 68 69 66 66 69 68 72 79 80 83 78 72 62 58 63 63 66 62 70 70 72 74 75
77 77 76 86 80 80 79 81 79 76 73 72 70 65 60 56 53 52 51 49 51 47 46 43 46 48 55 65 71 80 83 85 77 79 73 71 78 75 75 76 75 75 75
76 79 88 86 84 81 81 77 73 68 63 59 54 50 50 50 48 48 50 50 49 47 39 38 43 40 44 44 56 67 77 86 92 90 80 76 74 74 76 81 76 76 76
83 84 86 84 82 78 72 68 64 59 53 46 45 46 46 47 48 48 49 50 51 50 44 38 39 46 46 46 44 52 62 65 69 73 78 81 79 77 77 75 77 77 78
84 83 82 80 74 66 62 60 57 51 46 46 47 48 50 51 51 52 52 52 52 52 49 43 39 40 44 46 49 53 51 66 68 64 77 87 85 78 77 71 72 73 76
81 79 75 68 62 58 57 53 49 45 46 49 51 53 53 54 55 56 56 55 54 53 50 48 41 40 42 47 49 50 53 54 62 69 75 71 69 74 69 75 73 76 76
75 68 63 58 56 53 49 46 44 45 48 51 52 54 57 58 57 56 55 53 52 51 50 49 46 42 41 44 48 50 52 54 57 57 59 62 64 69 68 69 69 69 71
66 62 58 54 51 47 46 42 44 48 50 51 55 57 55 52 50 51 52 49 47 47 47 48 46 46 41 41 46 48 49 51 55 57 57 59 60 58 58 61 63 57 57
63 58 53 50 47 44 40 42 46 49 52 55 54 47 45 45 46 47 46 44 44 43 42 43 44 45 43 41 40 42 46 47 49 52 56 56 57 60 62 66 64 60 61
59 56 49 45 41 37 40 44 46 49 53 51 44 39 38 41 43 43 43 40 36 37 37 38 40 41 42 42 40 36 38 41 42 46 51 51 54 56 58 59 60 60 63
52 56 42 37 33 39 44 46 49 51 50 46 43 42 43 42 43 40 36 34 33 32 33 33 35 36 37 38 38 37 34 34 36 39 45 45 50 52 55 56 57 57 58
52 38 34 31 36 41 43 47 49 48 44 42 43 44 42 39 37 35 30 28 26 26 28 28 28 29 30 32 34 35 35 37 38 41 46 48 50 52 55 56 58 59 60
42 32 29 35 39 41 44 47 46 45 41 40 37 36 37 34 29 26 22 21 19 22 22 21 21 22 24 26 28 29 31 29 29 31 38 37 37 40 42 44 49 53 55

GFSMA_500_spd_036.txt.gz
Wind_Speed
36 40 41 41 41 40 39 37 34 32 32 33 34 32 32 33 36 37 37 38 38 37 37 38 38 37 38 39 40 40 40 40 40 40 38 36 32 29 28 26 26 21 21
42 42 43 42 41 39 36 35 35 35 35 36 37 39 39 39 39 41 44 44 44 44 43 42 42 42 41 41 41 42 42 42 42 42 43 41 39 36 32 31 29 24 22
43 43 42 43 41 39 39 40 41 41 41 42 44 45 46 47 48 49 48 48 48 49 50 50 47 47 46 45 45 46 46 46 46 47 47 46 44 42 39 34 32 31 26
43 42 41 41 41 42 44 45 46 46 48 49 49 51 52 54 55 55 55 54 53 53 52 53 53 53 53 51 49 48 48 49 49 49 50 51 49 46 44 40 37 35 33
41 39 41 44 45 46 48 49 51 53 54 54 56 57 58 58 59 60 62 63 61 60 59 58 57 59 58 57 57 54 53 52 53 53 53 53 54 52 48 43 41 40 38
45 45 45 47 50 51 53 54 57 59 61 62 63 63 64 65 66 67 69 69 70 69 68 66 64 64 64 65 65 63 60 58 57 57 58 58 57 57 56 55 51 48 44
48 50 53 55 57 59 59 61 63 65 67 69 71 72 73 73 73 74 74 75 75 75 75 74 72 70 69 67 67 69 68 65 63 62 61 62 62 60 60 60 58 56 53
56 58 60 62 63 65 67 68 70 71 74 76 77 79 79 78 78 78 78 79 79 79 79 80 80 79 77 75 73 71 72 72 71 68 66 65 65 65 64 63 64 62 60
59 61 63 67 70 73 76 77 78 80 82 84 84 84 85 84 83 80 78 80 80 80 80 81 83 83 83 80 78 76 74 74 75 75 72 70 69 68 67 66 66 66 66
62 67 70 73 77 79 80 82 84 86 87 87 85 83 86 88 88 82 82 82 81 81 80 79 80 81 83 82 79 77 73 69 72 75 78 73 74 72 71 68 68 68 67
65 69 73 76 78 80 82 83 82 83 85 84 81 86 88 89 91 90 82 81 79 80 81 81 81 82 82 81 80 79 76 68 58 72 72 74 73 71 72 71 70 71 71
74 77 80 81 82 81 80 80 82 83 85 85 87 90 88 87 87 88 87 83 84 81 83 85 85 86 86 86 85 82 80 74 70 70 67 70 72 75 75 75 73 71 71
81 83 84 84 82 82 82 81 82 84 88 93 94 89 86 86 85 85 86 84 83 82 82 85 87 88 89 90 88 87 86 84 81 64 56 57 70 76 78 77 77 75 74
86 87 87 86 85 84 82 82 83 85 88 90 87 84 79 78 77 77 76 75 75 73 66 66 68 71 72 78 84 85 84 87 85 87 74 70 66 72 66 70 75 78 75
90 88 86 84 84 85 85 84 84 84 84 79 74 71 68 67 67 65 62 59 57 54 51 45 48 52 51 52 56 63 70 74 84 85 90 80 67 70 66 67 71 70 70
88 88 87 86 86 85 84 82 79 76 70 67 64 62 60 58 56 53 52 52 53 53 48 48 44 45 48 47 46 50 55 65 74 81 87 82 67 69 62 60 65 74 75
88 88 86 86 85 81 74 69 66 63 62 60 58 55 51 48 48 49 50 52 52 54 52 48 47 46 45 47 48 47 49 54 64 76 87 93 91 85 74 68 64 68 70
87 87 86 83 72 63 64 62 58 58 56 54 51 48 47 47 49 51 53 54 54 55 56 53 50 50 49 47 48 49 53 51 52 57 65 86 90 90 89 68 74 74 77
94 89 79 64 64 68 67 60 55 53 51 49 47 47 48 51 52 54 56 57 58 58 59 57 53 53 52 50 49 50 51 56 54 49 55 72 67 78 76 82 83 81 81
86 74 66 61 65 75 60 52 47 46 44 45 47 49 51 53 56 57 55 52 51 51 52 52 52 51 52 52 51 50 51 52 60 55 55 62 63 69 64 64 64 68 70
72 55 57 60 67 63 55 43 40 40 42 46 49 51 54 55 54 52 49 42 41 42 45 46 47 49 47 48 50 51 49 51 53 55 55 56 57 71 73 63 69 71 76
53 54 56 61 64 57 42 36 36 41 45 48 50 53 52 50 48 47 45 46 46 44 42 42 42 44 44 45 47 49 47 48 49 52 54 54 54 51 63 70 64 69 72
41 53 59 61 61 42 36 37 41 44 47 50 50 50 48 45 44 44 45 46 45 43 41 38 37 37 40 42 42 45 47 45 45 49 50 49 51 53 55 60 58 59 61
39 43 54 60 50 35 38 42 45 47 50 48 49 47 44 42 41 40 39 37 37 37 36 34 32 33 36 36 36 41 44 43 40 40 47 45 48 49 53 57 62 62 60
46 46 54 47 33 36 41 44 46 48 45 46 44 41 40 34 31 31 31 30 30 32 30 28 27 28 29 29 31 35 39 40 39 38 39 40 44 46 48 50 54 56 58
34 35 28 28 33 38 42 45 47 42 43 40 35 34 30 28 27 26 24 22 21 22 22 22 21 20 22 24 26 29 34 36 37 36 39 36 40 42 45 48 50 52 54

GFSMA_500_spd_039.txt.gz
Wind_Speed
30 36 38 38 38 35 34 34 33 31 31 30 31 32 32 33 35 37 38 39 39 39 39 40 41 41 42 41 41 40 40 40 39 39 38 37 35 35 32 30 31 30 28
37 37 40 42 39 36 34 33 33 34 34 34 35 36 36 37 38 40 42 45 47 47 46 46 46 46 46 46 46 45 44 43 42 42 42 41 39 38 37 37 35 34 30
38 40 43 42 39 37 36 37 37 37 37 38 39 40 42 43 44 46 47 48 49 49 51 51 50 49 50 51 51 51 51 50 49 47 46 46 45 43 41 39 38 38 36
43 43 42 41 41 40 40 41 42 43 44 45 45 47 48 50 51 52 53 54 56 56 55 55 54 55 54 54 55 55 55 56 54 53 52 50 50 48 47 44 42 41 41
47 43 40 40 41 43 45 45 46 47 48 49 50 52 54 55 57 58 59 60 61 62 62 63 63 62 61 61 61 60 59 58 58 58 57 57 54 53 52 48 45 44 43
47 44 43 43 43 45 48 48 51 54 55 57 59 60 61 63 64 65 66 66 67 67 68 71 72 71 69 67 66 66 67 65 63 62 61 60 61 58 56 55 52 49 47
48 48 47 49 52 54 57 60 62 63 65 67 68 68 69 70 70 72 73 75 75 76 76 77 78 78 78 76 75 72 70 73 71 68 66 65 65 64 63 60 57 55 55
51 51 54 57 61 65 67 69 72 74 76 76 77 76 75 74 75 77 79 82 83 82 82 81 81 82 82 81 79 79 77 74 76 75 72 70 70 69 68 67 65 62 60
52 57 61 67 71 73 74 77 79 82 83 84 85 86 85 83 83 81 81 83 84 84 85 86 86 86 86 84 84 82 81 79 77 78 76 69 73 73 74 71 70 68 66
61 65 69 73 76 79 81 83 84 86 87 87 87 87 88 89 88 85 83 83 85 87 88 88 88 88 87 86 85 84 83 81 80 78 78 78 63 62 75 76 74 72 71
64 69 73 77 80 82 84 86 86 85 85 85 86 86 87 88 90 90 85 86 86 88 92 91 89 89 88 86 85 85 83 80 80 79 79 78 77 72 66 74 77 76 76
70 74 78 81 84 86 87 87 87 86 86 86 88 89 91 91 92 95 96 94 97 96 96 99 95 92 91 90 88 86 85 83 82 81 78 77 76 75 76 75 75 77 78
77 80 84 87 90 90 88 87 86 86 87 89 91 92 92 92 92 93 94 93 92 87 84 83 88 90 92 92 92 91 88 87 87 85 82 79 75 71 68 78 80 77 78
82 86 89 91 90 88 87 87 88 90 90 90 88 87 85 84 83 82 80 78 75 74 71 68 70 74 78 78 81 85 89 89 88 86 86 84 78 69 71 68 78 76 75
87 90 92 93 91 90 91 91 91 88 84 79 75 71 72 73 71 68 68 67 65 61 57 51 50 51 52 54 55 56 60 68 74 77 81 86 86 80 80 65 73 76 79
92 93 94 94 94 94 93 91 89 79 68 72 74 71 67 67 62 59 58 55 55 54 51 49 46 48 50 50 51 51 50 50 53 59 65 73 85 89 94 82 71 67 66
95 95 95 95 96 96 91 84 72 63 64 69 62 55 54 53 51 51 51 52 54 54 54 49 49 50 52 53 52 52 49 48 47 48 54 62 72 85 92 95 79 71 65
95 97 95 95 92 80 73 66 60 62 67 69 49 43 43 44 46 49 51 52 54 55 57 55 52 52 53 53 54 53 52 49 47 46 47 54 66 78 84 92 95 85 63
95 95 96 91 76 68 64 52 59 62 70 49 41 42 43 46 48 50 52 53 55 57 59 59 55 54 54 55 56 56 55 52 49 48 46 48 50 61 80 87 95 96 85
97 97 91 78 65 58 52 51 57 65 50 40 42 45 47 49 51 53 55 55 54 54 53 52 50 47 48 49 52 54 55 53 50 49 47 52 49 51 56 72 88 91 78
95 84 72 64 47 49 56 57 59 43 39 44 47 49 51 54 53 52 53 51 51 50 48 47 44 43 43 45 47 50 52 52 50 51 50 48 53 52 51 50 63 82 90
79 65 58 51 44 46 51 54 46 39 46 47 48 52 52 50 51 48 47 46 46 47 46 47 48 48 47 46 47 48 48 49 49 51 51 50 48 52 53 53 53 59 75
60 53 46 44 45 46 50 48 39 45 46 49 51 47 48 48 44 41 39 40 40 42 43 43 42 43 43 44 44 43 43 43 45 50 49 47 48 48 56 53 53 54 62
45 38 33 32 32 36 33 37 42 45 49 50 45 46 46 40 36 34 35 35 37 38 36 34 33 34 36 36 36 36 36 37 40 45 48 44 45 44 48 52 51 51 57
32 31 32 32 31 31 36 39 43 47 47 42 43 45 40 35 34 35 34 34 33 35 33 26 25 25 26 28 29 29 30 32 35 40 43 39 40 38 40 43 47 50 54
33 32 34 34 35 36 37 41 44 45 39 39 40 37 35 31 34 35 35 33 29 29 28 22 17 16 17 20 22 22 25 27 31 35 38 33 35 33 34 40 42 43 45

GFSMA_500_spd_042.txt.gz
Wind_Speed
31 35 36 37 39 39 39 39 36 33 31 31 30 29 31 32 33 33 34 36 36 37 37 38 40 41 41 40 40 39 39 38 38 38 38 37 36 35 34 33 33 32 31
33 34 38 41 44 43 41 38 36 35 33 31 31 32 34 35 35 36 37 37 39 40 40 41 41 43 44 44 44 44 44 43 43 42 41 41 39 39 38 38 37 36 35
37 40 40 44 46 44 41 39 37 36 37 38 37 37 38 40 42 44 44 45 45 46 47 48 49 48 48 50 49 48 47 48 46 46 46 45 45 44 43 41 39 38 39
42 42 47 47 47 45 42 40 41 41 42 43 43 45 47 48 48 50 51 51 52 53 53 53 53 54 54 54 55 56 53 52 52 51 51 50 51 49 48 47 46 43 41
49 49 48 47 44 42 41 40 41 43 47 50 52 54 55 57 59 60 60 59 60 62 62 61 61 60 59 60 60 60 61 60 58 57 57 56 55 55 54 52 51 50 47
54 53 51 47 42 39 41 45 50 54 56 58 59 61 64 67 68 69 69 68 67 68 69 70 69 69 69 68 66 65 66 67 67 64 63 62 60 58 58 58 56 55 54
55 54 50 46 44 46 50 54 58 63 65 66 68 70 72 73 74 75 75 76 76 75 75 75 76 76 76 77 77 76 73 72 71 73 71 69 67 65 63 61 62 61 59
54 50 48 50 53 58 62 66 69 72 75 78 79 80 80 81 81 82 82 81 80 80 80 80 80 81 80 80 82 82 81 79 77 74 78 77 74 72 69 69 66 65 64
50 52 57 62 64 68 72 75 78 81 82 82 83 85 86 86 85 83 83 83 84 85 86 85 84 84 84 84 83 83 83 85 81 79 76 80 80 78 75 74 73 71 69
55 59 63 66 69 74 77 81 84 84 85 86 87 88 89 91 91 90 87 84 85 87 88 88 88 88 88 88 88 89 87 85 84 84 83 79 81 82 79 71 76 77 76
60 63 67 71 74 77 80 82 84 87 89 90 91 90 88 88 90 90 88 88 88 89 93 95 95 96 96 96 95 94 93 91 87 84 84 82 81 83 83 75 70 72 80
64 67 70 74 79 82 85 88 90 91 92 93 93 92 91 90 90 92 95 95 94 93 96 98 100 101 102 101 100 99 97 92 90 88 83 82 82 81 83 82 76 73 71
67 72 78 81 85 89 92 93 93 95 95 95 94 93 93 90 88 86 87 87 86 82 82 82 82 83 85 86 86 89 92 94 93 89 86 82 82 83 80 82 80 74 80
76 81 85 88 91 93 94 95 96 97 97 97 94 86 78 72 71 71 73 75 75 73 67 62 61 62 65 64 65 65 68 76 81 85 84 84 82 83 81 81 80 80 80
82 86 90 93 95 97 97 98 99 101 98 90 78 70 68 61 59 63 59 56 56 55 51 48 48 49 51 53 53 53 53 55 58 65 72 78 78 80 83 81 81 81 77
88 93 95 96 97 98 98 98 99 90 79 67 58 60 58 60 63 49 45 44 45 48 46 42 41 43 45 47 48 49 49 47 46 47 50 57 62 68 78 83 84 84 83
93 96 99 100 99 99 100 94 81 70 56 54 53 58 63 59 44 41 41 43 44 49 49 42 45 45 46 49 50 50 52 51 48 47 45 45 48 55 66 76 84 84 86
97 99 101 100 99 99 89 75 65 54 45 47 53 57 43 41 43 46 47 47 48 51 53 50 48 50 50 52 52 52 53 53 52 50 47 45 47 48 58 72 80 90 91
98 99 98 98 95 82 68 61 49 43 47 53 51 42 42 46 48 48 49 51 51 51 53 53 51 51 52 53 54 54 55 55 55 53 50 47 47 49 49 65 79 87 90
99 97 96 88 73 62 56 48 42 42 43 47 42 45 48 49 51 52 48 48 50 50 50 51 50 49 49 49 51 50 51 52 52 53 54 51 48 49 49 50 64 79 86
96 95 83 67 53 47 39 34 32 34 40 40 45 48 52 53 50 47 48 46 43 43 43 44 44 46 46 46 45 46 44 44 43 48 51 52 50 49 48 46 48 60 73
94 80 63 45 36 36 36 36 36 35 39 43 46 50 51 45 45 47 42 39 37 39 40 41 39 39 40 42 44 44 44 42 40 42 46 49 50 49 48 47 46 47 48
76 62 43 38 35 36 36 36 37 38 42 45 48 49 43 43 45 38 34 36 39 41 41 42 40 38 36 35 38 41 44 45 42 41 42 45 48 48 48 46 47 48 51
62 44 38 36 35 36 36 38 39 40 44 47 49 44 41 43 39 32 33 37 39 40 40 39 36 34 31 29 31 33 36 38 37 36 39 40 46 47 47 45 44 49 48
50 36 36 35 34 36 37 39 40 42 45 47 45 40 41 39 34 32 34 36 37 36 35 33 30 27 24 21 24 27 28 28 26 30 33 35 41 44 43 41 43 44 48
40 34 35 34 34 36 39 41 40 43 45 44 40 37 39 33 29 31 33 34 34 33 30 27 25 20 16 15 16 16 18 17 19 23 28 30 36 37 38 36 37 38 41

GFSMA_500_spd_045.txt.gz
Wind_Speed
26 31 34 36 36 40 40 43 43 44 41 37 34 32 31 31 32 32 32 33 34 35 35 35 35 36 36 37 38 38 37 36 36 35 35 34 34 35 36 36 36 33 32
26 32 36 35 39 42 46 46 44 44 42 40 36 35 35 36 36 36 37 38 39 39 40 40 41 41 42 42 42 42 43 43 43 42 41 40 38 38 38 39 39 37 36
32 38 41 41 43 44 46 46 46 44 41 39 37 36 38 40 41 42 43 44 44 45 45 46 47 48 49 49 49 48 46 46 48 48 48 46 44 42 41 41 41 41 40
47 48 44 45 47 47 46 45 42 42 39 38 40 43 46 48 49 50 52 52 52 54 55 54 55 54 54 55 55 56 56 52 50 51 51 52 50 49 47 46 45 44 44
48 48 50 50 46 44 43 42 41 40 42 44 49 51 55 58 58 58 59 61 62 63 63 62 62 62 62 63 63 62 62 61 60 58 56 56 56 55 53 52 50 49 47
48 49 49 46 42 40 39 40 42 45 49 54 57 60 63 66 70 72 72 72 73 73 74 73 71 70 71 70 70 70 70 70 68 67 65 63 61 61 60 58 56 54 53
49 46 43 40 41 44 46 49 52 55 59 63 66 70 73 75 76 77 78 78 79 80 81 81 81 80 77 76 77 77 76 76 76 75 73 73 70 68 66 64 63 60 58
47 45 46 49 52 54 57 60 63 66 69 70 71 73 76 78 79 81 82 82 82 82 83 83 84 85 85 83 81 81 82 83 83 83 82 80 78 77 74 71 69 67 65
46 48 52 55 58 60 63 65 67 69 71 73 76 79 82 83 83 84 86 88 88 88 88 88 89 90 91 92 90 87 84 85 86 87 87 87 86 84 83 79 76 74 70
51 53 55 58 59 61 64 68 73 77 79 82 84 87 89 91 93 96 97 95 95 95 94 91 88 88 89 91 93 93 91 89 87 88 90 91 90 90 88 85 82 80 79
56 57 58 59 65 69 74 78 82 86 89 92 94 96 96 99 102 103 103 100 98 95 96 96 96 96 95 94 94 94 94 93 92 91 91 92 93 93 92 91 86 83 81
59 61 65 69 74 79 83 87 90 94 98 99 100 99 100 100 99 98 96 92 88 83 82 85 89 93 96 98 100 100 101 100 99 98 97 96 94 94 94 91 91 85 82
64 68 73 78 81 86 90 93 96 98 98 100 103 103 101 94 88 82 79 75 69 68 67 68 69 74 78 82 83 86 90 92 95 98 99 98 97 97 95 94 92 90 83
69 75 80 84 88 91 93 95 97 99 102 104 103 94 83 75 65 61 59 55 56 57 55 53 49 53 59 59 62 67 68 67 69 72 79 88 93 94 96 95 95 89 86
75 80 83 87 90 93 96 100 102 104 105 98 84 73 63 55 50 50 52 55 47 40 34 38 38 38 43 48 49 51 52 52 52 55 58 62 69 77 83 88 92 90 85
79 83 88 91 95 98 101 102 104 98 88 76 66 59 48 44 50 49 39 40 43 44 35 40 39 39 40 43 45 46 45 45 45 45 45 48 53 59 67 74 80 85 86
84 89 93 96 97 101 103 104 94 77 66 60 55 45 41 44 45 40 42 47 48 49 47 44 44 44 45 45 46 48 47 47 48 45 43 42 44 48 54 62 70 78 81
89 92 94 95 99 102 98 83 67 54 50 46 39 36 37 39 40 45 47 49 51 53 51 48 43 44 45 47 50 51 50 49 50 48 47 45 45 46 47 52 65 71 79
90 91 94 98 99 89 74 58 46 42 41 39 38 39 39 42 45 47 51 51 48 47 48 50 46 47 46 46 47 50 51 53 53 52 50 49 47 47 48 47 54 70 77
89 92 96 96 85 72 57 43 41 41 40 39 38 40 43 45 48 51 48 46 47 47 45 42 38 38 39 38 40 44 47 50 51 51 52 52 51 50 49 49 48 57 71
91 94 92 83 70 57 44 41 39 40 41 41 41 44 46 48 51 48 46 46 45 40 36 38 40 40 40 40 40 40 41 44 44 47 49 49 51 52 51 51 51 52 58
92 88 81 71 59 44 38 36 37 40 42 43 42 45 46 47 47 44 44 43 37 36 39 42 40 39 39 40 40 40 40 38 39 41 44 44 45 48 52 53 53 52 53
86 78 72 59 47 35 35 35 37 40 42 43 43 44 45 45 43 42 41 34 34 39 39 39 36 34 32 34 35 37 37 33 36 38 38 36 37 40 48 52 54 52 50
76 72 60 48 35 33 35 34 37 40 42 42 44 44 44 42 39 41 32 30 34 35 36 37 34 31 30 30 32 31 28 27 29 33 37 36 37 37 42 47 52 51 49
73 63 49 37 30 32 32 33 37 40 40 42 44 43 42 37 38 35 27 29 30 32 36 35 33 29 28 26 23 19 20 20 22 26 30 33 37 38 38 43 49 50 48
67 52 40 30 29 30 30 32 37 38 39 40 42 41 38 34 35 29 24 27 26 31 33 32 29 27 25 18 13 12 13 14 19 21 26 28 35 35 35 40 46 47 46

GFSMA_500_spd_048.txt.gz
Wind_Speed
38 42 41 32 27 36 38 40 43 42 42 41 40 40 41 40 39 38 37 35 37 37 37 37 37 36 37 37 38 38 39 38 37 36 35 35 35 35 35 35 35 35 35
36 32 35 35 38 36 39 41 43 45 45 43 42 41 40 40 41 39 38 39 38 40 40 41 42 42 42 42 42 43 43 44 44 44 43 42 40 40 41 40 39 39 38
31 43 43 40 44 43 44 44 43 43 42 42 42 41 39 39 40 40 40 43 45 44 47 49 48 48 48 47 48 48 49 49 49 50 50 49 48 46 45 45 45 43 42
38 36 40 45 48 49 46 43 41 40 40 40 40 40 40 42 44 46 49 51 53 54 53 53 55 56 57 57 57 57 56 56 56 55 56 55 54 53 51 49 49 47 46
40 43 46 46 44 42 40 37 35 36 39 41 42 44 46 48 50 53 55 57 59 62 65 65 65 66 65 66 66 65 64 63 63 62 61 62 62 60 58 55 53 52 50
45 44 46 46 42 38 37 40 41 42 44 46 48 51 53 55 57 59 61 62 65 67 68 70 72 74 75 75 75 74 74 73 71 70 69 68 67 67 66 64 61 58 56
48 47 49 46 41 43 44 46 51 53 55 57 59 60 62 64 65 67 68 71 74 76 78 78 79 80 81 82 83 84 83 82 80 79 78 77 74 73 72 71 69 66 63
51 54 53 48 50 52 54 55 56 57 59 64 66 68 71 75 79 80 80 80 82 83 86 87 87 87 87 88 90 89 89 90 89 87 85 84 83 81 79 78 76 74 71
53 54 51 52 54 56 57 57 60 65 68 72 75 78 81 83 86 88 90 92 91 93 94 95 96 98 98 97 96 97 95 96 96 95 94 92 89 87 87 85 83 81 78
51 51 54 56 57 59 60 64 68 73 77 79 83 87 89 91 92 93 94 96 98 100 102 103 101 100 99 99 100 102 102 102 102 103 102 99 96 94 92 92 91 88 85
54 57 59 62 63 65 68 73 78 81 83 87 90 93 96 97 100 102 104 104 105 105 100 96 93 94 97 97 96 100 98 101 103 104 105 106 103 100 98 98 96 94 92
59 62 64 66 68 72 77 80 82 87 91 94 97 99 100 101 103 105 102 95 92 85 80 76 76 76 76 82 87 89 91 95 99 101 103 104 104 102 101 101 100 98 96
63 65 67 70 75 78 80 84 89 92 95 97 98 99 102 102 96 87 80 73 69 64 61 61 61 61 64 66 68 73 74 78 85 92 99 104 105 105 103 102 102 102 100
65 68 71 73 75 80 85 89 91 94 96 97 100 102 96 84 73 65 61 57 57 53 49 45 39 42 45 49 51 53 59 62 65 69 77 86 98 104 105 104 103 102 101
66 69 71 75 80 86 89 91 94 95 96 99 93 82 70 62 57 52 48 49 46 37 35 37 40 42 45 46 45 45 46 49 52 53 58 63 70 83 97 101 101 103 102
68 71 76 82 86 89 90 92 94 96 96 87 75 60 52 49 46 43 43 43 43 45 47 44 45 46 47 49 50 48 47 47 47 48 49 51 54 60 67 80 91 97 101
72 77 82 86 88 89 90 92 96 91 81 69 52 46 46 45 45 44 44 46 47 47 49 45 47 46 45 46 48 50 50 50 48 48 49 48 48 51 56 61 68 77 88
77 82 84 86 87 88 91 93 85 78 65 48 44 43 42 42 42 44 47 46 48 48 50 48 41 45 46 47 48 50 51 51 50 50 50 47 49 48 49 53 58 62 68
80 84 85 86 86 90 91 82 75 62 46 41 40 41 43 44 43 45 47 48 48 48 45 47 44 45 42 41 40 41 44 46 48 51 50 51 51 49 49 49 50 54 60
83 84 85 85 89 88 79 74 61 46 39 38 40 42 45 45 45 47 47 48 48 44 44 44 38 37 40 43 44 44 42 42 42 44 48 50 52 51 50 49 50 50 53
82 83 84 87 86 78 73 60 48 38 37 38 40 44 47 46 48 48 47 47 43 43 40 35 36 40 41 43 44 43 43 43 42 42 41 45 51 53 53 51 50 52 51
81 82 86 85 77 73 62 50 38 35 37 37 40 44 46 47 46 45 45 42 41 38 33 36 37 37 40 40 40 41 40 39 39 39 41 40 46 49 51 54 52 51 52
81 84 84 76 71 64 50 38 34 35 35 36 41 44 44 45 44 44 41 38 37 31 34 34 35 38 37 37 37 36 36 36 35 36 40 37 42 43 47 49 51 52 53
83 82 74 69 65 51 40 32 32 32 33 38 41 42 43 43 42 40 36 36 29 29 32 34 36 37 35 34 37 32 28 30 31 29 30 31 36 38 40 42 45 51 54
82 75 67 65 53 42 32 30 31 30 33 38 39 40 41 41 40 36 34 31 25 28 29 33 35 34 32 30 30 23 21 20 18 18 22 25 30 33 35 35 38 45 53
75 66 63 56 43 35 28 29 30 30 34 36 37 37 38 37 35 33 33 26 23 26 27 31 33 31 29 26 23 17 15 13 13 14 18 21 27 32 34 33 34 40 49

GFSMA_500_spd_054.txt.gz
Wind_Speed
36 29 30 27 32 30 27 35 44 49 49 42 43 43 47 45 46 46 46 44 41 41 39 40 41 42 40 41 40 39 40 42 42 40 39 40 41 41 41 40 38 36 36
36 28 28 41 36 33 32 36 40 44 48 45 45 47 46 45 42 42 41 41 39 39 39 40 40 41 43 43 42 43 42 43 45 45 44 42 43 44 45 44 41 39 37
41 30 35 36 35 38 36 40 45 47 46 47 48 46 44 39 39 39 42 41 44 42 41 43 43 44 47 48 48 47 48 48 48 49 49 48 47 47 48 48 49 46 43
42 39 36 36 40 43 44 43 42 43 45 44 42 41 41 42 44 44 46 46 49 48 47 47 50 49 53 55 56 56 56 55 55 55 54 53 53 53 52 52 51 52 51
43 43 43 43 43 41 41 39 41 41 40 40 41 42 43 45 47 49 52 53 55 55 56 57 58 59 59 61 62 62 64 65 65 64 63 61 60 60 58 57 55 55 54
40 39 40 40 40 42 42 43 42 43 43 44 45 47 48 48 50 53 57 58 59 62 65 67 68 69 69 71 70 69 71 71 70 71 71 72 71 70 67 65 63 61 59
38 40 44 44 41 42 45 47 47 47 48 50 51 52 52 54 55 59 61 63 67 69 71 73 75 77 79 79 80 81 79 79 81 81 81 79 78 77 78 75 73 71 67
41 44 45 47 50 51 53 53 53 53 54 55 57 58 59 58 60 63 66 69 73 77 80 81 82 83 85 87 87 88 88 87 87 89 91 91 89 87 84 84 82 79 77
44 47 49 51 53 55 55 56 57 57 59 59 61 62 64 65 67 70 74 78 80 83 86 88 90 92 92 93 94 95 95 96 97 97 96 97 98 98 96 93 90 89 87
47 49 52 54 55 56 58 59 60 60 62 63 64 68 72 76 79 79 83 87 89 91 92 93 94 95 96 97 100 100 99 100 100 99 101 102 104 104 103 102 99 98 95
51 51 52 54 56 58 60 61 61 62 65 67 71 75 79 84 88 92 93 94 94 96 97 96 91 85 81 80 80 82 85 86 88 93 97 101 106 108 108 108 108 106 103
55 57 59 60 62 64 64 65 66 67 72 76 80 83 88 92 95 98 98 97 97 93 84 78 72 66 64 63 63 63 66 70 72 74 80 84 93 102 107 111 112 111 110
58 59 61 63 64 65 66 68 70 73 77 82 86 88 91 93 96 96 97 93 84 74 69 60 55 52 52 53 53 53 52 53 53 55 58 63 70 78 89 102 109 114 116
59 60 61 63 64 65 67 71 75 79 83 87 89 90 91 92 94 91 83 78 71 63 54 50 46 49 49 51 51 54 55 52 51 51 49 49 52 59 66 78 88 103 114
60 61 62 64 65 67 70 74 79 84 87 88 89 88 89 90 86 79 73 65 58 52 45 45 46 48 49 51 53 55 53 51 50 50 49 49 51 55 54 54 66 79 90
61 62 63 65 66 70 74 79 83 85 86 88 86 89 88 82 77 70 59 50 47 49 50 50 48 49 50 51 51 51 50 50 50 50 51 51 51 53 54 51 50 55 69
63 64 65 67 70 74 79 83 84 85 86 85 88 88 80 74 68 56 47 43 45 49 52 51 51 49 48 47 47 49 48 47 47 46 47 50 52 51 51 51 51 50 51
65 67 67 70 74 77 81 82 83 86 85 88 86 79 71 65 57 44 41 42 45 48 54 54 49 45 45 46 45 46 45 44 44 43 43 44 49 51 53 54 51 48 50
66 68 71 74 78 78 81 83 83 84 86 85 78 70 65 55 42 39 41 42 46 52 53 50 48 45 45 43 42 41 40 39 39 40 41 41 43 45 46 48 51 52 50
68 74 76 78 80 82 82 81 83 85 83 76 69 63 53 42 37 38 39 44 49 48 47 47 44 42 39 40 38 36 36 38 40 42 43 44 44 44 45 44 44 48 50
72 77 78 79 82 82 83 81 84 83 78 68 62 53 42 36 35 36 42 47 46 46 45 44 42 39 38 34 33 34 36 40 39 42 44 42 41 41 41 43 43 43 46
76 80 80 82 82 83 83 84 83 76 68 62 53 43 36 35 35 38 44 43 42 42 41 41 39 37 30 31 32 36 39 41 38 39 43 37 41 38 39 40 42 41 40
78 81 82 85 84 83 82 81 75 69 62 54 44 37 33 34 35 40 43 41 42 43 43 41 37 32 28 31 34 36 38 39 38 37 38 33 35 32 35 36 38 38 37
81 85 86 86 84 83 80 74 68 62 54 45 38 33 32 34 35 40 40 39 41 42 41 38 34 28 29 31 35 35 36 34 35 33 33 25 27 25 29 31 34 35 36
84 85 86 83 83 82 73 67 61 54 45 39 35 32 32 33 36 39 38 37 39 38 37 36 30 26 29 31 33 34 34 32 29 27 26 22 20 18 19 23 29 31 33
83 87 81 82 79 73 65 58 54 47 40 36 33 31 31 32 35 37 36 36 37 36 34 32 28 26 28 29 31 33 29 29 26 21 22 16 15 13 10 11 13 21 28

GFSMA_500_spd_057.txt.gz
Wind_Speed
27 36 24 35 25 26 36 33 34 35 35 38 42 45 48 48 45 45 46 47 45 43 41 40 38 39 40 40 38 40 40 41 42 40 39 38 39 40 40 39 39 37 37
35 25 38 36 33 31 28 33 35 37 40 41 43 43 43 44 43 42 42 44 42 41 40 39 39 40 40 42 43 42 42 43 44 46 43 42 41 42 42 42 41 40 38
33 35 34 34 32 32 31 34 35 34 35 37 38 40 40 41 42 43 43 43 44 45 44 44 44 44 45 47 47 47 49 49 48 49 49 49 47 47 45 45 45 43 43
28 30 30 29 31 32 34 35 36 36 37 38 38 39 41 42 42 44 45 47 49 51 51 51 51 51 50 51 52 51 54 57 57 57 57 54 55 53 53 50 49 48 46
24 25 28 30 32 34 36 38 38 39 41 41 41 43 43 43 44 46 47 48 50 52 53 53 54 54 54 56 58 60 61 63 64 64 64 63 62 63 62 59 56 54 52
30 32 32 34 37 39 42 43 44 44 45 45 46 46 45 46 47 50 50 52 55 56 58 59 61 62 63 64 65 67 69 71 71 72 73 73 72 70 69 69 67 64 61
34 36 36 38 39 42 44 46 48 48 49 51 52 50 50 50 51 52 53 55 57 60 64 66 68 69 72 74 74 74 75 76 77 78 80 82 81 80 78 76 74 73 70
38 40 42 44 45 47 48 50 51 52 53 54 55 54 52 49 52 55 58 62 65 68 72 76 78 79 81 83 85 87 87 87 87 86 85 85 88 89 88 86 83 81 79
42 45 46 47 48 50 52 53 54 55 56 56 56 56 55 56 57 60 64 69 73 77 80 83 86 88 88 88 90 91 92 93 94 93 94 94 94 95 96 95 93 90 88
46 49 49 50 51 53 54 55 56 56 56 57 57 58 61 64 67 69 72 75 79 81 83 85 86 86 87 86 86 88 89 90 91 94 95 98 100 98 100 102 102 99 96
51 52 53 53 52 53 55 57 58 58 57 57 61 64 68 72 77 80 82 85 87 89 90 89 85 80 75 72 74 75 75 78 80 82 84 86 89 94 102 105 107 107 105
56 57 58 58 58 59 61 62 63 62 61 63 68 72 77 82 86 90 91 92 94 95 88 81 76 72 65 61 60 59 60 61 64 69 72 73 76 79 85 93 101 108 110
55 57 57 59 61 62 63 63 63 63 66 69 73 78 84 88 90 94 94 95 93 83 79 73 66 61 51 49 49 49 50 50 50 54 58 59 59 61 64 72 85 95 104
57 57 59 61 62 62 64 64 64 66 70 75 80 84 90 90 91 90 91 88 82 75 67 62 52 45 43 45 49 51 51 51 49 49 52 55 58 59 59 61 62 71 85
57 59 60 62 63 64 65 65 68 73 77 82 86 88 90 87 89 88 84 79 72 66 56 44 39 39 43 46 50 53 53 53 54 54 52 52 52 52 52 54 57 59 62
57 60 62 63 64 65 66 70 73 78 82 85 86 85 85 88 86 80 74 66 60 55 46 39 37 41 45 49 52 52 50 49 51 50 47 48 49 50 51 52 54 55 56
59 61 63 65 64 64 69 73 78 81 84 86 86 84 87 85 78 70 63 56 47 42 41 37 40 44 49 49 46 46 46 47 48 48 47 47 47 48 50 51 51 52 53
61 63 64 64 63 67 72 77 80 83 84 86 84 86 84 76 67 60 55 45 38 39 40 42 44 45 44 45 46 45 43 43 43 43 43 43 44 46 50 51 53 54 54
63 64 64 66 67 73 76 79 82 85 85 84 85 83 76 66 58 53 44 38 37 38 42 47 43 42 42 43 44 44 42 40 39 37 37 40 41 43 46 48 50 52 54
62 63 67 71 75 79 81 84 89 87 85 84 82 75 66 57 52 42 35 35 35 38 44 44 42 42 41 41 42 40 37 32 32 35 37 40 42 43 45 46 48 49 50
64 73 80 83 80 81 85 87 89 87 86 83 75 66 57 52 43 35 33 33 36 40 43 41 41 41 40 39 38 34 30 29 32 37 39 39 41 41 44 44 44 45 46
64 68 74 80 82 85 87 88 86 87 82 72 63 55 52 45 37 32 32 33 37 41 39 38 38 37 36 35 30 28 29 31 32 40 39 36 41 39 39 42 44 44 43
70 73 77 80 87 88 87 86 85 78 69 60 54 52 46 38 33 32 32 34 37 41 39 40 39 37 34 31 27 27 30 33 35 37 35 34 38 35 35 34 37 40 40
79 78 81 84 84 84 83 81 74 66 58 53 51 47 39 33 30 30 31 33 37 38 37 39 39 36 34 29 26 27 30 31 35 35 35 28 31 28 28 28 28 31 33
78 81 85 82 81 81 76 72 65 58 53 50 46 42 35 30 29 28 30 32 35 36 36 37 37 34 31 27 26 27 30 32 32 33 32 24 26 23 22 20 21 22 27
81 80 83 81 79 76 71 64 58 53 48 45 40 37 33 29 28 28 29 31 33 33 33 35 35 34 30 25 25 27 29 32 30 29 27 21 22 17 13 12 11 14 19

GFSMA_500_spd_060.txt.gz
Wind_Speed
23 26 30 27 27 28 24 24 25 26 29 32 34 35 38 40 40 41 43 44 42 43 41 40 38 36 36 36 37 37 38 37 38 40 39 38 39 38 36 36 36 34 35
24 26 25 25 25 24 24 25 28 30 32 35 37 38 39 40 41 42 42 42 42 43 43 43 43 41 42 41 42 42 44 43 42 43 41 41 42 42 41 39 38 38 36
20 19 20 20 22 25 26 28 30 33 35 37 38 39 40 40 41 42 43 45 46 47 47 48 48 48 47 48 47 47 49 50 49 49 50 48 47 46 48 46 44 42 40
16 18 22 24 25 29 31 31 33 35 36 38 41 42 43 44 44 44 43 44 46 47 48 48 49 50 52 52 54 54 54 54 56 58 57 56 56 54 54 53 52 49 47
22 25 27 27 30 32 34 36 37 39 41 42 43 45 46 46 47 48 47 47 48 49 50 50 50 49 49 49 51 54 56 58 62 63 65 65 65 64 62 60 60 59 55
25 28 30 32 35 37 39 40 42 44 45 46 47 48 48 49 49 48 48 48 49 50 53 54 56 57 57 59 61 62 63 65 65 66 68 70 72 73 73 71 67 66 65
30 34 37 39 41 43 44 45 46 47 48 49 50 51 51 51 51 51 50 51 52 55 58 62 64 66 67 70 72 75 76 76 77 78 77 77 78 79 80 79 78 75 73
38 40 42 43 45 47 49 50 51 51 52 52 53 53 54 53 51 51 53 55 58 62 66 70 73 75 78 79 80 82 83 85 86 86 87 88 88 89 88 87 86 84 82
42 44 45 47 48 50 52 54 54 55 55 56 56 56 57 55 52 52 55 59 64 68 73 78 80 82 84 86 88 89 91 92 93 94 97 99 98 97 98 98 95 93 91
45 46 48 50 51 53 54 56 56 56 56 56 56 57 57 56 57 58 63 68 72 77 82 84 84 85 88 89 90 89 87 86 87 87 86 88 91 94 99 103 105 102 100
47 48 50 52 52 54 55 55 56 57 59 59 60 58 59 62 65 68 70 76 81 85 90 90 91 91 89 84 81 79 77 77 79 80 81 83 85 87 89 93 100 106 106
51 53 54 55 54 56 57 58 59 62 63 64 63 62 64 68 72 76 80 84 87 91 94 94 92 86 83 79 75 72 68 65 65 68 71 74 77 79 80 83 88 94 104
56 57 58 60 62 62 62 63 65 66 67 66 65 68 71 75 79 84 88 90 92 94 93 92 85 80 74 69 66 62 55 51 51 53 55 59 64 68 70 70 73 80 87
57 58 59 59 60 62 64 65 67 68 67 66 69 73 76 79 84 87 92 92 93 92 87 82 76 71 67 60 51 46 46 46 47 50 52 54 56 58 59 59 59 61 68
58 58 58 58 60 63 64 66 68 67 68 71 75 78 81 85 88 92 91 91 87 86 76 68 62 57 50 45 43 43 45 48 51 53 55 55 54 53 55 56 57 58 60
58 58 58 59 61 63 65 67 65 68 74 80 82 83 84 87 89 91 89 84 81 75 65 57 51 44 40 40 42 45 49 50 49 49 50 51 50 48 48 49 51 52 55
57 58 59 60 62 64 65 67 71 78 80 81 83 84 88 91 91 87 82 76 69 62 56 48 39 37 39 42 45 45 45 45 45 45 47 48 48 48 48 49 50 50 50
60 61 62 63 66 67 68 71 73 78 83 85 85 89 91 91 87 80 73 65 58 54 49 38 34 38 41 45 43 42 42 44 44 44 45 46 46 46 47 46 48 49 50
63 64 65 66 67 68 71 73 78 82 84 88 90 90 90 81 74 70 62 54 51 46 39 37 36 41 43 41 39 40 41 42 42 42 41 41 41 41 43 45 47 48 49
64 65 66 69 73 73 75 79 80 82 85 88 89 82 77 70 65 58 53 48 42 36 36 37 39 42 42 41 41 40 38 40 38 36 35 35 36 39 41 44 45 47 48
65 66 70 75 77 79 81 81 82 84 87 86 83 77 70 63 57 52 47 41 35 34 35 36 38 41 40 40 39 38 38 35 31 35 32 36 39 40 42 43 45 46 48
65 65 69 75 82 82 82 86 87 85 82 80 75 68 62 56 51 47 42 36 33 34 34 35 39 37 37 37 35 34 33 29 27 35 33 36 38 38 39 40 43 43 45
67 70 75 78 80 85 85 85 83 82 78 74 66 59 55 51 47 43 38 33 33 33 33 35 36 36 35 36 33 31 30 28 29 32 31 34 35 36 38 37 39 40 42
72 75 76 80 84 83 81 79 76 73 71 65 58 53 50 46 42 39 35 31 31 32 33 35 35 35 36 35 32 29 26 26 29 33 31 29 34 33 34 36 36 35 36
73 77 81 80 78 76 75 71 68 71 66 59 53 49 46 42 38 36 32 29 29 30 32 34 34 35 35 34 31 27 25 26 28 31 31 30 32 29 31 34 32 30 29
76 76 74 73 73 72 70 67 68 70 63 54 49 46 42 38 36 33 29 27 27 29 30 31 33 35 35 34 31 27 22 24 27 30 31 28 30 27 23 28 22 20 17

GFSMA_500_spd_063.txt.gz
Wind_Speed
17 22 22 25 26 24 23 24 27 28 29 31 32 33 35 36 38 39 40 40 41 42 43 44 43 42 41 38 36 37 39 38 37 36 33 34 34 34 35 36 36 36 33
20 18 19 18 20 23 26 27 28 30 32 33 36 38 40 41 41 40 41 43 44 45 44 44 43 43 43 42 41 40 42 43 44 44 42 42 39 39 38 39 40 39 38
13 14 17 19 22 24 27 30 31 34 37 39 41 43 44 44 45 44 44 45 47 48 47 46 45 45 45 45 45 46 45 45 49 50 50 48 47 47 47 45 44 44 44
13 16 19 22 25 29 32 34 35 37 40 42 45 46 47 47 48 47 48 48 49 49 49 48 46 45 44 44 45 47 48 49 51 54 56 57 56 56 55 54 52 50 50
17 19 23 27 31 34 37 39 41 43 45 46 48 48 49 49 49 50 51 52 52 52 51 49 48 47 47 48 49 50 50 50 51 53 55 58 61 64 64 62 61 59 57
21 24 29 33 36 39 41 43 44 46 47 48 49 49 50 50 51 51 53 54 54 53 51 49 50 51 52 54 56 57 59 60 62 62 62 64 64 65 68 70 69 68 67
27 31 34 37 40 43 44 46 48 48 49 50 51 50 51 52 53 54 54 55 55 52 51 52 54 56 59 62 65 66 68 70 72 74 75 75 76 78 78 77 78 78 75
33 37 39 42 44 46 48 50 51 52 52 53 54 53 53 54 56 56 57 56 53 53 56 59 63 65 69 73 76 78 80 81 82 83 84 84 85 86 87 87 86 85 86
38 41 44 46 48 50 52 53 54 55 55 56 56 56 57 58 59 59 59 56 57 59 63 66 69 73 76 80 82 84 87 90 92 92 90 89 89 90 93 94 94 95 93
43 46 47 49 51 53 54 54 56 55 56 57 58 59 60 61 63 63 60 60 62 66 70 74 78 82 84 85 87 90 93 95 94 92 91 90 89 88 89 92 97 102 102
47 49 49 48 50 52 55 56 56 56 57 59 60 61 62 64 63 62 62 66 70 75 80 83 86 89 91 94 96 95 93 88 86 85 85 85 86 86 86 88 90 94 100
49 48 52 54 54 54 56 57 58 59 61 62 62 64 66 64 65 68 71 75 78 80 83 87 91 94 96 95 94 91 87 83 79 76 74 73 73 75 78 80 83 86 92
51 53 57 59 59 62 61 60 61 64 66 66 67 70 69 70 73 76 79 82 85 87 86 91 96 97 91 87 84 81 76 73 69 67 65 62 63 65 68 72 74 76 79
51 57 59 60 61 62 63 64 67 69 69 71 72 73 74 77 78 82 85 87 88 89 91 94 92 87 83 79 74 71 66 61 55 51 50 50 52 54 56 57 59 60 64
53 59 64 67 64 63 65 67 69 70 71 73 73 74 76 80 83 85 86 87 91 93 92 87 80 76 73 68 64 59 53 50 47 46 48 50 52 52 53 52 52 53 55
54 61 70 64 65 66 68 67 69 70 72 74 78 81 84 86 87 87 89 88 87 85 82 75 69 65 60 56 54 48 45 44 47 50 51 51 49 49 48 47 47 48 50
56 64 64 65 67 68 68 69 69 72 75 80 84 87 88 86 87 91 88 85 80 75 71 65 59 54 52 48 44 43 44 46 48 46 45 44 44 46 47 47 48 48 48
60 61 64 67 67 69 70 72 74 76 78 81 86 87 89 94 90 87 85 79 72 67 61 55 50 47 42 41 42 43 47 47 44 43 42 43 45 47 48 47 46 48 49
63 64 65 66 69 71 73 75 78 81 84 85 88 92 91 91 88 84 76 67 62 58 55 50 44 39 38 40 42 46 46 42 41 40 40 42 44 42 41 40 41 42 44
65 65 67 68 70 73 76 79 81 82 84 88 88 89 87 85 79 73 64 60 56 53 50 45 39 36 38 40 43 45 42 42 41 40 40 40 37 35 35 35 37 38 41
65 67 67 69 72 75 78 80 82 86 88 86 85 82 78 73 69 64 57 54 52 48 44 39 36 35 37 39 43 42 40 38 37 37 38 36 35 34 35 37 39 41 42
65 67 69 72 75 77 79 82 86 84 82 81 76 69 69 68 64 58 53 50 48 44 40 36 34 35 36 40 39 38 38 36 34 37 36 33 33 34 38 39 42 41 40
67 70 72 75 77 78 81 83 81 76 76 73 66 66 68 66 60 54 50 47 44 40 37 33 32 34 35 36 34 36 38 36 34 34 32 29 35 35 38 40 39 37 37
70 72 75 76 78 81 81 75 72 73 72 68 66 68 68 64 56 50 46 43 40 38 35 32 31 32 33 33 35 36 36 33 33 33 30 27 34 34 36 35 34 33 34
72 73 74 76 81 79 73 71 71 72 72 68 69 71 68 60 52 47 44 40 37 37 34 32 31 31 31 32 35 35 34 31 29 31 27 27 32 32 31 33 31 30 31
73 74 76 79 78 72 71 71 73 74 70 69 71 72 65 55 47 44 41 37 36 36 33 32 31 31 31 32 35 36 34 30 29 27 25 27 32 32 25 29 29 26 25

GFSMA_500_spd_066.txt.gz
Wind_Speed
13 18 20 20 17 17 19 23 24 25 27 29 31 33 35 37 39 40 41 41 42 43 43 43 43 43 43 42 41 40 39 41 41 37 35 34 34 32 33 33 34 35 33
17 18 15 15 18 20 22 24 26 28 30 33 35 38 39 41 43 43 44 45 45 45 45 44 44 45 45 44 42 41 41 41 43 44 42 41 40 40 38 37 36 36 37
12 11 14 18 19 21 24 27 30 33 35 38 40 42 44 45 46 46 46 48 48 48 48 47 47 48 48 46 44 42 41 41 42 44 45 46 46 45 45 45 44 42 41
10 13 17 19 21 26 29 33 36 38 40 42 44 45 47 49 49 49 50 50 50 49 48 49 49 51 50 50 48 45 43 41 41 43 44 44 47 49 48 49 50 49 48
13 17 19 24 28 30 34 37 40 41 43 45 47 48 50 52 52 52 52 52 51 50 50 50 51 52 52 51 49 49 49 49 48 48 49 49 50 51 52 55 56 54 54
17 20 25 29 32 35 38 41 43 45 46 48 50 51 53 53 53 53 53 53 54 54 53 53 55 53 51 51 51 52 54 56 57 58 59 59 59 60 61 61 61 64 64
23 27 30 34 37 40 43 46 47 48 49 50 52 53 54 54 53 53 53 55 55 55 56 58 56 54 53 55 56 58 60 62 64 67 69 71 72 71 71 71 72 72 71
28 31 35 38 40 44 47 49 50 51 52 54 55 55 55 55 55 56 57 57 57 58 58 56 55 56 58 61 64 67 71 73 76 79 81 83 84 85 84 84 82 82 82
33 36 39 41 44 47 49 50 53 55 55 56 56 56 57 57 58 59 60 61 62 62 59 59 61 63 66 69 71 74 78 82 85 87 88 89 90 91 91 91 91 91 91
38 40 44 46 48 50 48 50 52 54 56 59 59 59 60 61 62 61 63 64 64 64 65 68 69 70 73 75 78 80 82 84 84 86 89 92 94 96 96 95 93 90 90
42 46 48 50 51 51 50 57 59 61 60 60 61 61 62 63 64 65 64 66 67 69 73 75 77 80 82 84 84 85 87 88 89 91 91 89 89 89 88 89 90 91 90
46 49 50 49 50 52 54 60 65 67 65 64 63 64 66 68 69 70 71 72 74 77 81 84 88 89 87 87 88 88 86 85 83 83 83 81 77 76 77 78 79 80 80
49 49 52 51 52 58 60 64 68 69 66 66 67 68 70 72 74 76 79 80 82 85 87 88 90 91 93 91 86 83 81 79 77 73 70 67 65 63 63 64 66 68 68
48 50 51 47 57 61 65 68 68 68 69 69 70 72 73 76 79 82 84 87 88 88 88 93 95 91 85 80 78 76 72 67 64 62 59 57 54 53 53 53 53 54 56
49 50 45 48 60 66 65 67 68 70 70 72 73 75 76 80 82 85 87 89 92 94 93 90 87 81 75 70 67 63 61 58 55 52 48 47 46 48 50 49 47 46 45
53 53 52 56 63 63 64 68 69 71 72 73 76 78 81 83 85 86 89 92 92 90 89 81 75 69 63 60 57 55 53 49 45 43 44 46 48 50 50 48 46 43 42
59 59 57 59 62 64 66 68 70 71 73 76 79 81 83 85 87 91 89 87 88 84 78 72 66 59 55 53 52 49 44 41 41 43 46 47 48 45 43 43 43 42 42
68 62 63 64 64 66 68 69 71 73 76 79 80 82 84 88 87 84 84 83 76 74 70 64 56 53 51 50 46 42 39 41 42 44 46 44 43 42 41 40 40 42 43
64 63 65 66 66 67 69 71 73 76 79 80 81 83 86 83 79 80 77 71 71 70 65 58 52 49 47 45 40 39 39 41 45 46 41 38 38 38 37 38 38 39 41
63 64 66 66 67 68 70 73 76 79 79 80 83 86 78 76 78 75 68 71 71 67 61 53 48 46 43 40 37 37 37 41 45 45 42 41 37 35 35 34 34 36 36
64 65 65 65 67 70 74 76 78 79 79 82 83 77 75 75 78 70 68 71 70 63 56 49 45 42 39 36 36 36 37 40 41 42 40 39 35 34 33 32 32 34 35
65 65 65 67 70 74 76 77 79 80 82 79 76 74 74 75 73 67 70 71 67 59 51 46 42 39 36 34 34 34 37 38 37 38 38 35 34 31 30 31 33 34 36
65 65 67 70 74 75 76 78 80 82 81 78 75 74 73 74 67 69 72 70 62 54 47 43 39 38 34 33 32 32 35 37 39 41 37 29 31 31 29 32 34 35 37
65 66 70 72 73 74 78 80 82 81 78 75 73 74 73 68 69 72 72 65 56 48 45 41 37 36 33 31 32 32 33 34 38 40 37 26 28 28 30 32 33 34 34
66 69 70 72 74 77 80 82 80 79 75 73 74 74 69 70 74 75 68 58 50 44 42 38 35 34 33 31 31 31 32 33 35 38 37 26 26 26 29 32 33 31 30
69 69 71 75 77 79 82 83 81 80 77 75 71 70 73 75 76 71 60 52 45 42 39 36 34 33 32 30 31 31 32 33 35 32 33 25 27 24 26 32 33 27 25

GFSMA_500_spd_069.txt.gz
Wind_Speed
17 16 15 17 16 12 14 17 19 21 25 27 28 30 32 35 36 38 40 41 42 43 44 44 43 43 43 45 45 44 44 44 45 45 43 40 37 37 36 34 33 32 33
16 14 14 13 11 15 18 18 21 25 28 31 32 34 36 38 40 41 42 44 44 45 45 45 44 43 43 44 45 46 47 46 44 45 45 44 42 41 40 39 39 37 36
14 13 10 11 15 18 20 23 26 29 31 34 36 37 39 41 43 44 45 46 46 47 47 47 46 46 47 47 46 46 46 47 46 46 45 45 45 43 43 43 43 43 42
11 10 12 15 18 20 25 29 30 33 36 38 41 42 44 46 48 49 49 48 48 49 49 49 49 49 50 50 49 50 50 48 47 45 46 45 44 45 45 44 44 45 47
11 13 16 19 22 26 29 32 34 37 39 42 43 45 47 49 50 51 50 50 51 51 51 51 52 52 52 52 53 55 54 52 49 48 48 49 50 49 48 49 50 50 50
13 17 20 24 28 30 33 35 38 40 43 44 46 48 49 50 51 50 50 50 51 52 53 53 53 54 55 56 56 54 52 52 52 52 54 55 57 58 57 57 58 58 58
18 21 25 28 31 35 37 39 42 44 45 45 45 48 49 49 49 50 51 53 52 52 53 54 56 58 58 56 55 55 56 57 58 59 61 63 65 65 67 67 68 68 69
22 25 28 32 35 38 40 43 45 48 50 48 52 54 54 53 52 53 55 55 55 56 58 59 61 59 59 60 60 62 63 65 67 69 70 72 75 76 77 77 77 79 78
26 29 33 35 38 41 43 46 46 49 49 53 55 57 60 59 59 58 58 58 60 61 62 63 63 63 65 66 68 70 72 74 76 78 81 83 85 87 89 89 90 88 87
30 34 37 39 41 44 45 49 48 48 49 52 57 60 62 61 61 61 61 62 63 63 64 67 69 71 73 74 76 77 78 79 80 82 83 85 87 89 91 93 93 94 94
34 37 40 43 44 44 49 49 48 52 56 59 60 62 63 63 63 64 64 65 67 69 73 75 77 79 81 80 80 82 84 86 88 88 88 88 89 90 91 92 93 93 94
39 42 43 43 46 49 52 52 53 55 61 64 63 64 65 66 67 67 68 71 75 78 80 82 82 84 85 85 86 86 86 85 83 81 80 81 82 83 85 86 88 90 90
42 43 41 44 48 53 49 53 58 62 66 66 66 66 67 68 70 72 75 78 81 82 83 83 85 86 87 87 84 82 78 75 73 71 70 69 70 69 69 68 69 71 73
43 42 45 48 52 50 53 62 60 61 64 66 67 68 70 71 74 78 81 82 82 83 85 86 88 87 83 76 73 72 70 66 63 60 59 57 56 55 54 54 54 55 57
41 45 51 54 55 57 64 61 62 64 66 67 68 70 72 75 79 81 80 81 84 87 85 85 85 79 75 72 70 67 61 56 54 53 51 50 48 46 46 45 46 46 48
46 49 54 50 35 65 70 65 66 67 68 69 70 72 75 78 79 79 80 83 85 85 84 83 75 73 73 71 66 59 52 49 48 46 43 41 41 41 43 45 47 48 49
51 51 49 59 62 71 67 67 68 69 69 71 73 75 77 78 78 80 82 83 82 81 81 76 68 72 72 67 61 53 48 45 43 38 38 39 40 42 45 47 47 46 44
50 55 61 63 70 67 68 69 70 71 71 73 76 76 76 78 80 81 80 78 77 77 79 67 69 71 69 62 55 48 45 42 39 37 38 39 41 43 42 40 40 40 38
58 62 66 70 67 67 69 70 70 71 73 76 76 77 78 80 81 79 78 75 75 76 70 67 70 70 63 56 50 45 42 39 37 37 38 40 39 36 35 35 34 35 35
66 69 69 66 68 69 70 70 71 74 75 75 77 79 81 81 79 77 76 74 75 71 66 69 72 67 58 51 46 41 38 36 35 37 39 39 38 36 36 33 31 32 33
66 69 68 68 69 69 69 71 74 74 75 77 79 81 81 81 78 76 74 73 72 67 69 72 70 62 52 47 42 39 36 33 34 37 38 40 39 36 32 28 28 29 31
66 66 67 68 68 69 71 74 74 75 77 79 81 83 84 82 78 75 74 71 68 70 72 72 65 55 48 43 40 36 34 33 32 35 36 37 37 36 30 28 27 27 29
63 65 66 67 69 70 73 74 75 77 79 81 84 86 84 80 77 74 70 68 71 73 73 69 58 49 43 41 36 34 33 33 33 36 36 32 35 35 31 28 27 26 27
63 64 66 67 70 72 73 75 77 79 82 84 86 86 82 78 73 72 71 72 74 73 69 62 52 45 41 38 34 33 32 31 33 35 36 32 34 32 31 28 26 25 27
63 65 66 69 71 72 75 78 80 82 85 87 88 84 79 75 74 76 76 76 74 68 63 54 47 41 38 35 32 31 31 31 30 32 36 33 35 30 30 27 25 24 28
63 65 68 70 72 75 78 81 84 86 89 91 88 80 76 79 79 79 77 71 65 60 53 46 41 38 35 33 30 30 30 30 29 30 33 31 34 29 22 28 26 24 27

GFSMA_500_spd_075.txt.gz
Wind_Speed
21 19 18 15 14 15 16 17 12 14 14 16 20 22 25 28 30 32 33 34 36 39 41 43 43 42 44 45 45 46 47 48 47 46 45 46 46 47 47 45 44 42 41
20 15 13 14 15 17 17 13 14 14 16 21 24 27 30 32 34 36 36 37 39 42 44 43 44 44 44 44 45 46 46 46 47 47 48 48 48 48 48 48 48 48 46
13 14 16 17 17 15 14 14 14 16 21 24 28 31 33 35 36 36 39 40 41 44 43 46 46 47 47 48 47 47 47 46 46 47 48 49 50 51 53 54 53 52 51
12 14 14 15 14 14 14 15 18 22 25 28 31 34 35 37 38 39 41 43 45 45 45 46 47 48 48 49 49 49 50 50 50 49 50 52 54 55 55 56 56 56 54
13 16 16 15 15 15 15 18 23 26 30 32 34 37 38 38 40 41 44 43 44 47 48 48 50 51 50 51 52 53 53 54 54 53 51 51 51 52 52 53 54 55 56
18 17 16 15 16 17 19 23 26 30 32 35 37 38 38 40 42 42 43 46 47 48 50 52 53 54 53 54 55 54 53 51 53 56 58 60 60 60 60 60 60 59 60
15 17 17 16 18 20 23 26 29 33 35 37 39 39 41 39 39 42 46 49 51 53 54 55 55 56 59 58 54 52 56 60 63 64 65 66 67 68 69 68 69 70 69
19 18 19 21 21 24 26 30 33 35 37 36 38 41 42 45 47 48 49 53 56 57 59 60 60 61 60 58 60 60 61 65 67 68 68 69 71 73 75 77 78 78 76
21 23 23 24 26 27 29 33 34 36 38 38 40 45 48 49 51 55 58 59 60 61 62 63 64 62 62 64 66 67 66 68 71 72 74 75 76 78 80 82 84 85 86
27 26 25 27 30 31 32 36 36 35 35 40 45 47 50 53 59 61 66 67 68 68 69 66 63 66 68 69 70 71 73 75 78 80 82 83 85 86 87 88 88 88 88
35 35 27 30 29 32 36 38 33 35 38 43 48 54 59 63 65 69 71 69 69 69 70 69 69 72 74 74 75 76 78 81 84 85 86 89 90 89 86 83 81 81 83
30 33 27 32 35 37 37 36 36 39 43 45 50 57 60 63 67 72 71 72 72 72 70 72 75 76 76 78 80 82 82 86 89 89 89 89 83 78 75 72 70 68 69
33 32 33 36 38 40 40 39 42 42 43 46 53 61 64 69 68 70 71 71 72 70 73 75 77 79 79 81 84 85 87 87 86 82 79 75 71 69 67 63 60 58 57
34 39 41 42 42 41 43 45 49 49 46 47 58 64 68 72 71 72 72 73 71 73 75 77 79 82 85 87 89 89 90 88 82 72 66 66 66 66 60 55 52 49 49
41 43 45 42 39 41 46 46 47 52 49 54 66 75 73 73 74 73 72 72 75 76 77 77 80 83 87 90 92 90 87 80 73 66 65 65 66 60 53 49 46 45 46
47 47 43 39 43 45 48 50 48 52 58 65 76 78 76 76 75 73 72 76 78 79 80 79 82 86 88 88 89 84 78 70 65 64 65 66 64 55 48 45 44 43 43
48 46 38 41 45 46 41 51 49 55 57 71 80 77 76 75 74 74 76 78 79 80 83 83 87 88 89 85 83 76 70 68 68 68 67 63 57 50 45 43 42 41 41
45 39 36 47 46 54 63 65 56 64 75 80 79 79 76 75 75 76 77 78 79 82 87 88 87 89 88 83 79 75 70 70 71 69 66 58 50 45 41 41 39 39 39
38 34 51 52 53 60 65 70 67 70 73 81 78 76 74 75 76 77 78 80 82 85 89 92 91 89 86 77 76 76 75 71 68 63 56 50 45 41 39 39 38 37 38
42 35 43 49 59 58 62 66 74 77 79 75 74 73 74 75 76 77 79 81 84 88 91 93 92 87 80 75 75 72 70 66 62 53 49 44 41 38 37 37 36 35 35
42 45 47 50 53 60 64 68 70 71 71 71 72 72 74 75 76 78 80 81 85 89 91 90 86 83 77 75 71 66 64 61 54 49 44 40 38 35 35 35 35 34 32
47 49 50 53 57 60 62 64 67 68 69 70 70 72 75 77 79 81 83 85 87 90 91 86 82 77 75 72 65 61 58 54 47 42 40 36 36 34 34 34 34 32 32
49 51 55 57 60 63 65 66 66 67 67 68 70 73 75 77 80 83 86 88 91 93 91 84 80 74 71 64 61 56 53 47 43 38 37 33 33 32 33 32 33 31 32
53 56 59 61 64 65 65 67 67 67 66 67 71 75 78 79 81 85 88 90 92 91 86 83 78 69 63 58 56 53 49 41 38 35 35 31 31 31 31 30 32 31 32
57 59 62 64 66 67 66 66 65 65 67 71 75 79 80 82 82 85 90 92 90 82 80 80 74 65 57 52 47 46 42 39 34 32 32 31 29 30 31 29 32 31 30
60 61 64 65 65 67 67 66 66 69 72 74 78 80 82 83 85 87 90 90 84 79 76 74 65 55 50 42 38 38 39 36 33 30 30 30 28 30 28 29 30 33 30

GFSMA_500_spd_078.txt.gz
Wind_Speed
24 41 26 19 18 16 14 13 13 12 12 13 15 17 19 21 23 25 28 29 29 31 33 34 37 39 39 40 42 43 43 44 44 45 45 46 46 47 47 47 46 45 45
26 19 18 21 17 13 12 13 17 12 14 14 17 20 21 24 27 27 30 31 33 35 37 38 38 39 39 41 43 44 45 45 46 46 47 46 47 47 48 49 49 49 48
20 22 17 12 11 11 17 16 13 14 14 17 21 23 25 27 30 32 31 32 35 38 38 39 40 41 42 43 45 46 47 47 47 47 49 50 51 51 50 51 53 54 54
21 20 16 16 16 17 15 14 14 15 16 21 24 26 28 29 32 33 35 36 39 40 41 41 43 44 46 48 49 50 51 51 51 50 49 49 48 47 47 48 49 50 52
14 14 14 15 15 15 13 14 17 17 21 24 27 30 32 32 33 33 37 39 40 42 44 43 46 49 50 51 53 54 55 54 52 50 49 49 50 51 53 55 56 57 58
10 12 14 16 14 13 16 18 19 20 24 28 31 32 32 32 34 35 39 40 41 41 43 46 49 51 52 53 55 57 56 53 52 53 55 56 57 57 58 60 61 61 61
10 14 19 17 18 17 19 21 22 24 28 32 34 34 33 31 34 37 38 41 43 45 47 49 52 54 54 56 58 55 51 54 56 58 59 60 61 63 64 65 65 66 67
15 16 18 19 20 21 22 24 26 27 30 34 35 33 35 37 37 39 42 45 48 51 56 58 57 58 59 61 59 58 55 59 62 63 64 64 65 68 69 70 72 74 76
17 23 23 23 24 23 25 29 31 31 35 37 33 33 34 38 40 45 48 53 57 59 59 59 60 61 63 61 59 59 61 64 66 68 69 70 72 74 76 77 79 81 83
19 25 27 26 29 26 26 30 30 34 37 40 37 35 33 36 41 46 51 60 65 65 64 63 63 63 63 63 62 63 66 69 70 73 75 77 79 81 82 84 87 89 91
21 26 29 24 38 34 29 28 33 35 37 38 37 38 38 40 43 45 55 64 65 64 66 66 69 70 68 66 69 69 70 72 75 78 79 81 83 86 88 90 90 89 85
27 29 30 29 26 33 33 35 42 43 43 45 47 48 47 49 53 56 67 70 71 69 68 68 68 68 69 70 72 72 73 75 78 80 83 85 88 89 89 85 78 71 70
27 30 29 29 35 37 37 40 46 43 42 47 50 51 49 51 53 58 66 71 71 70 69 68 69 70 72 75 77 77 77 78 80 82 85 86 86 81 76 70 66 65 64
31 32 34 38 42 43 41 46 39 41 44 49 52 54 52 55 56 70 73 75 74 70 69 69 71 73 76 78 80 82 82 83 83 85 87 84 75 68 64 63 63 64 61
34 36 39 44 45 46 48 43 41 45 48 49 49 47 52 54 62 71 74 77 77 74 73 70 72 74 77 79 82 84 85 86 86 87 84 78 67 65 65 63 61 59 53
36 41 42 45 46 38 52 39 44 47 51 49 54 60 61 64 66 72 76 78 77 76 73 73 74 77 79 81 84 87 90 91 89 86 77 72 65 63 64 61 55 52 46
42 42 44 43 45 38 49 48 48 48 59 64 62 62 70 77 79 80 77 77 76 75 76 74 77 78 80 83 86 88 90 89 85 79 72 69 63 60 56 52 49 45 42
40 42 45 38 44 39 40 46 56 56 63 66 75 73 79 74 76 76 76 75 72 73 77 78 79 81 84 87 88 90 89 87 81 73 68 64 57 55 50 45 43 40 40
41 44 45 42 41 38 44 47 50 60 55 63 68 70 71 73 72 72 71 70 72 75 78 81 81 82 86 88 90 89 86 85 75 67 61 55 49 47 45 40 38 38 37
41 41 41 42 43 45 47 49 53 56 58 62 66 68 69 68 69 68 67 70 73 76 79 81 84 86 89 88 88 85 83 77 71 63 56 50 47 43 39 35 35 35 35
42 43 42 44 46 49 51 54 57 60 62 65 66 67 68 67 66 66 70 72 75 78 80 82 84 88 89 87 86 83 79 75 66 58 54 48 43 38 35 34 33 33 33
43 44 47 48 51 54 56 59 61 63 65 66 66 67 67 66 68 70 73 75 79 82 84 86 89 90 88 86 85 79 75 68 61 51 50 45 41 36 33 31 31 31 32
45 47 50 52 55 58 60 62 63 65 66 65 66 66 66 68 71 73 75 78 81 84 87 89 91 90 87 82 78 73 66 58 51 45 44 40 38 34 31 28 29 30 31
48 51 54 57 58 60 61 62 66 65 64 66 68 67 69 70 73 77 79 82 85 86 87 90 89 87 82 76 70 65 57 50 43 38 41 38 35 30 29 27 27 30 29
53 56 57 60 61 61 63 64 64 64 66 69 69 68 71 74 78 81 83 85 86 85 87 87 85 81 77 70 64 55 49 45 36 37 38 36 32 28 27 25 28 28 27
56 58 60 60 62 64 65 65 65 67 70 70 69 71 74 77 81 84 87 88 88 87 88 85 82 77 70 63 56 49 44 38 37 35 37 34 31 28 24 25 27 27 27

GFSMA_500_spd_081.txt.gz
Wind_Speed
22 19 20 23 11 18 19 17 15 15 13 12 13 13 14 14 17 19 20 21 22 23 25 27 29 30 32 35 35 35 37 40 41 41 43 44 45 45 45 45 46 47 47
21 17 17 15 25 22 17 16 15 14 13 14 15 15 16 17 18 20 21 23 25 26 29 31 32 33 36 37 37 38 42 42 43 44 46 47 48 49 49 48 48 48 49
11 14 17 25 25 17 16 14 14 14 15 17 16 18 18 21 21 23 25 27 28 29 32 34 35 38 38 39 39 42 43 44 46 47 49 50 50 50 49 48 48 48 48
10 16 24 19 17 13 14 13 15 16 17 18 19 20 21 24 25 26 27 27 28 30 30 33 36 38 39 40 42 44 46 47 49 50 51 51 49 48 48 47 47 49 50
21 23 19 16 14 12 15 17 17 18 20 20 20 22 24 25 28 29 30 30 30 32 33 35 36 39 40 42 45 48 49 51 53 54 53 52 50 49 50 51 51 52 54
19 19 19 17 15 16 18 18 19 20 21 22 23 25 28 31 32 30 29 30 30 31 31 35 38 42 45 47 49 52 53 54 54 53 52 52 52 53 54 55 56 58 58
13 11 10 13 15 17 18 18 20 20 23 26 28 30 30 31 31 31 31 32 31 32 36 40 44 46 49 51 52 53 55 54 52 51 52 53 56 57 58 60 61 62 63
7 10 17 17 18 18 19 19 22 25 26 30 31 34 34 34 32 31 32 33 32 33 44 47 52 54 54 54 55 55 56 54 54 55 57 59 60 62 63 65 65 66 67
10 14 13 18 17 19 24 24 26 28 29 27 31 35 36 37 38 38 38 39 43 53 52 51 59 61 61 61 60 58 54 53 56 59 61 64 65 67 68 69 71 72 73
15 18 18 21 24 26 29 31 33 33 27 28 34 36 41 38 40 44 48 51 51 53 53 56 63 65 64 61 61 57 55 56 61 64 67 68 70 72 74 75 77 78 80
15 18 19 22 28 27 30 31 31 38 40 40 43 44 47 47 46 46 48 50 51 55 57 64 68 69 68 69 67 63 62 64 66 69 71 72 75 77 79 81 83 85 87
18 20 23 24 27 30 28 30 34 34 35 37 43 44 43 41 48 49 48 45 49 55 62 62 67 68 67 68 67 66 67 69 70 71 72 76 78 81 84 87 88 89 89
16 20 21 24 27 31 33 37 39 40 41 44 41 41 45 47 51 50 52 52 53 58 67 62 62 64 65 65 66 68 70 73 73 73 75 78 81 84 87 88 89 89 82
19 21 25 29 30 33 37 37 40 44 44 42 40 42 45 47 52 57 56 57 59 65 69 64 64 65 65 65 68 71 72 74 75 78 81 83 86 88 87 86 80 79 70
23 26 29 32 34 37 40 42 45 43 52 45 44 49 48 50 50 63 65 70 75 73 69 66 67 65 64 67 70 72 73 75 79 82 85 87 87 87 87 79 72 68 66
28 30 33 35 37 37 39 36 39 40 39 43 46 59 61 49 62 64 71 69 70 70 69 67 66 66 69 70 72 74 77 81 83 88 90 88 86 87 83 70 66 63 59
29 33 37 38 37 36 37 35 34 36 41 42 48 61 59 56 63 62 64 66 68 69 68 66 66 68 70 72 75 77 80 85 90 92 91 87 86 81 72 65 60 55 52
33 37 36 38 37 39 37 36 37 39 43 45 48 49 55 59 61 64 66 67 66 68 68 68 69 71 73 77 79 82 85 89 91 89 88 87 83 74 65 55 52 50 49
33 33 36 35 35 40 39 39 41 45 46 48 50 54 58 62 64 66 65 66 68 69 70 71 72 74 76 79 82 85 87 90 90 85 84 81 74 68 56 49 47 47 46
37 35 36 36 40 40 41 42 45 49 51 53 56 60 61 63 64 64 65 67 68 69 71 72 73 75 78 81 84 86 87 87 86 82 80 76 68 60 48 47 44 43 40
37 37 42 42 39 41 45 47 49 52 54 56 59 59 63 64 64 65 67 68 69 70 72 74 76 79 81 83 86 89 91 89 85 79 76 70 62 52 46 45 43 39 36
40 37 40 41 41 46 49 51 53 55 58 60 61 63 65 64 64 67 69 70 72 73 75 78 80 83 85 88 88 89 88 85 82 73 69 61 53 46 41 39 38 36 32
40 40 42 43 46 50 53 54 58 61 61 62 65 66 65 66 67 68 67 69 73 76 79 82 83 86 89 89 88 86 80 80 74 67 62 53 47 40 39 36 35 32 30
43 43 46 50 52 56 59 60 63 63 64 66 66 66 66 67 68 68 69 71 74 77 81 85 88 90 90 87 85 82 78 74 66 60 56 49 39 37 35 35 32 30 29
47 49 52 54 58 61 63 64 66 66 67 67 67 66 66 68 69 70 71 73 75 78 83 87 91 91 89 86 82 77 73 67 60 52 50 47 38 35 33 33 30 30 28
51 53 56 59 62 62 63 66 68 70 70 68 67 66 68 70 71 73 76 78 80 82 86 89 90 89 86 83 79 76 68 60 56 49 42 44 39 36 29 30 29 29 27

GFSMA_500_spd_084.txt.gz
Wind_Speed
22 20 20 19 22 20 18 23 21 19 18 19 17 15 15 16 17 17 20 20 20 20 21 21 23 25 27 28 30 32 34 35 35 37 37 39 41 41 42 43 43 45 46
18 19 19 20 18 20 23 24 22 19 18 15 15 15 17 17 19 21 22 22 23 22 22 24 25 27 28 30 32 33 35 36 38 39 41 42 43 43 45 45 46 46 47
16 18 18 20 17 22 24 20 17 18 15 14 17 18 20 20 21 23 25 25 24 25 26 28 29 30 31 31 32 34 36 37 40 42 43 45 47 48 48 48 48 48 49
19 16 21 20 21 25 23 18 18 17 15 17 19 21 22 23 23 26 27 26 27 28 29 29 29 30 30 31 34 35 38 41 42 44 46 49 50 50 49 49 49 50 50
19 21 17 17 26 20 18 17 17 18 18 19 21 22 25 26 27 29 29 29 29 30 30 30 30 29 29 31 36 40 42 44 46 47 49 51 51 50 48 49 50 51 52
19 18 19 21 20 16 16 18 18 18 18 19 22 26 28 27 28 30 32 32 30 31 32 32 31 29 43 43 42 46 48 51 53 53 53 53 52 50 50 51 53 54 55
17 19 18 19 17 17 19 20 18 19 20 23 26 29 30 30 32 32 31 31 33 35 39 37 37 45 51 48 48 54 59 61 61 59 57 54 51 51 53 54 56 57 57
17 19 14 12 16 19 19 18 18 20 23 27 30 33 34 31 32 34 35 34 34 36 40 45 49 51 52 54 51 56 60 63 60 59 57 53 53 55 57 58 59 59 59
13 11 13 12 18 19 16 18 21 23 25 32 34 38 39 34 36 38 40 42 43 46 44 45 48 51 56 55 55 62 61 60 58 55 54 55 57 59 61 61 62 63 66
8 13 13 13 16 19 20 23 24 26 26 33 37 41 43 43 46 48 46 48 49 47 47 46 47 52 55 58 61 66 62 58 57 55 57 59 61 64 65 66 69 70 72
12 17 17 15 19 19 22 26 31 28 27 28 31 33 37 40 44 49 46 43 45 46 50 54 59 60 64 67 70 63 61 61 61 60 62 63 63 66 70 72 74 75 78
15 17 15 15 18 19 19 22 25 28 32 33 34 34 36 37 36 39 41 43 43 44 48 55 58 64 66 69 66 65 64 63 62 63 65 67 69 71 73 76 79 82 84
15 15 14 16 17 19 23 27 29 33 37 40 44 46 52 36 41 41 44 46 52 49 56 57 62 61 63 64 65 63 63 63 65 67 70 72 75 78 79 82 85 88 88
14 16 16 20 22 25 26 29 33 37 41 43 49 52 47 42 45 43 49 54 57 52 57 58 61 60 60 62 61 61 63 65 67 70 74 77 79 81 83 86 89 90 87
20 22 24 26 28 29 30 33 36 38 36 36 39 43 38 43 45 49 51 56 52 55 58 59 61 60 61 62 61 63 65 66 69 73 76 77 81 84 88 91 90 88 86
27 27 29 31 30 29 34 33 34 35 35 38 38 39 44 46 48 48 49 51 56 58 59 60 59 59 61 61 63 64 66 69 72 76 79 82 85 90 94 94 91 89 85
30 32 30 31 34 35 35 35 33 34 38 39 37 38 43 46 48 49 52 54 58 60 61 59 58 60 62 63 65 68 70 73 76 80 82 86 89 92 91 88 87 85 81
37 28 28 29 31 34 37 34 33 38 42 40 41 43 45 48 51 55 58 59 61 63 61 61 61 62 63 65 68 71 74 78 80 83 87 91 93 92 89 87 82 78 72
29 34 30 30 34 36 34 38 41 43 43 45 45 47 50 54 56 59 60 62 63 63 63 64 64 64 65 68 71 74 77 80 83 89 91 94 90 87 84 81 76 71 64
34 36 32 34 37 38 41 43 41 45 45 47 49 50 54 58 60 63 65 66 66 66 66 67 68 66 67 70 74 77 78 82 86 91 91 91 84 82 81 76 71 64 57
33 33 35 37 39 39 42 42 43 46 48 51 50 57 62 64 67 68 68 69 68 67 67 68 69 69 70 73 76 79 82 86 89 92 89 88 81 81 75 70 64 56 49
35 37 37 39 39 42 41 43 48 51 52 53 55 61 64 66 69 71 72 71 71 71 70 72 72 73 73 77 79 83 87 91 93 89 87 83 76 74 70 64 57 49 44
39 40 40 41 41 43 45 49 52 48 58 60 62 63 65 68 70 72 74 71 72 72 73 73 74 75 78 82 85 87 91 93 92 86 83 77 70 65 62 58 50 44 41
42 42 43 44 48 50 51 54 55 57 61 63 63 66 71 72 71 70 70 70 71 73 75 77 78 79 82 84 88 91 92 91 87 80 76 73 64 59 58 52 45 43 40
41 44 47 50 51 55 57 59 61 62 65 67 70 73 73 72 71 71 70 71 73 75 78 79 81 82 83 87 91 93 90 89 84 78 71 66 60 58 53 47 44 41 39
44 47 49 53 57 59 62 61 63 64 66 68 71 73 74 72 70 72 74 76 77 79 81 82 82 84 88 90 92 91 89 86 81 74 64 62 58 56 48 44 43 39 40

GFSMA_500_spd_087.txt.gz
Wind_Speed
27 25 23 21 21 23 24 26 24 23 23 20 21 21 18 18 19 19 20 20 21 23 25 25 26 26 25 26 27 28 28 29 29 31 31 33 34 36 37 40 41 43 44
22 23 25 24 27 23 22 28 23 23 23 20 20 19 18 18 19 20 21 22 24 26 27 28 28 27 27 30 31 30 30 30 30 30 31 32 35 37 39 41 43 44 45
24 23 25 24 29 26 26 26 24 25 23 19 19 19 18 20 21 22 24 26 26 28 29 29 29 30 30 30 30 30 30 30 30 32 36 37 40 42 43 44 45 45 45
21 20 24 25 25 23 28 24 27 22 20 17 20 19 20 23 24 24 26 27 29 30 31 32 32 33 34 35 35 32 32 38 40 40 42 43 46 48 49 49 50 49 46
25 26 27 27 26 27 23 23 20 20 17 19 19 20 21 24 23 26 28 29 30 32 33 33 33 34 36 38 40 39 44 47 48 47 44 44 50 53 54 55 52 50 48
27 28 26 27 24 23 21 19 19 20 17 18 22 22 23 24 26 28 30 32 33 32 33 35 36 37 39 42 44 47 51 50 53 52 53 57 61 66 57 55 52 50 50
27 28 20 17 19 21 20 18 18 18 19 21 22 24 24 27 30 32 32 34 34 34 36 34 34 37 42 45 46 45 47 48 52 52 56 63 63 58 56 53 52 51 52
21 16 14 17 21 21 18 19 20 21 24 24 25 26 28 30 33 33 33 33 35 38 41 43 45 45 44 45 43 50 53 54 57 59 64 62 60 54 52 52 52 54 55
20 19 19 20 20 17 22 21 25 23 24 26 29 30 32 33 37 39 40 42 44 47 47 46 47 44 45 46 48 50 52 56 61 65 62 60 56 54 54 54 56 58 59
18 17 18 17 17 20 23 22 22 24 26 28 31 33 34 35 33 37 40 42 44 47 46 40 40 41 44 45 49 54 55 57 58 60 58 56 54 53 56 58 60 62 65
11 13 17 19 19 19 21 20 25 27 28 29 32 33 35 37 38 39 40 41 44 45 45 43 44 50 54 56 57 58 59 60 61 59 58 58 56 57 59 62 64 67 70
15 18 23 22 19 19 21 23 25 27 29 29 31 34 37 40 41 40 45 44 40 40 45 46 51 54 50 57 59 61 61 60 58 58 59 59 59 62 64 66 68 72 74
14 18 18 20 20 22 24 24 28 29 31 32 35 39 42 40 47 48 49 46 39 43 45 50 51 50 53 57 61 62 60 60 60 61 61 61 63 65 68 71 74 76 79
17 19 19 22 22 24 26 28 29 31 33 35 40 42 39 42 41 43 45 46 49 48 47 47 49 52 56 59 60 61 61 61 63 64 63 64 66 68 71 75 77 80 85
20 22 24 25 28 30 31 30 31 34 34 39 38 36 39 40 42 43 41 45 47 48 50 51 54 56 58 62 63 62 61 63 65 64 65 67 68 71 75 78 81 85 90
26 27 27 31 34 35 31 33 32 37 38 37 36 38 40 41 42 42 43 45 48 51 55 56 58 58 62 64 63 62 64 65 64 64 67 68 70 74 78 81 86 91 95
33 34 37 39 37 33 37 30 38 37 38 39 37 38 42 43 43 46 47 48 52 56 57 57 59 61 63 64 64 65 65 66 66 68 69 71 75 78 81 86 90 93 96
37 41 43 43 38 36 40 38 39 40 40 38 42 47 46 45 47 48 50 52 54 56 58 59 61 64 65 66 67 67 67 68 69 72 74 77 79 83 87 91 93 95 94
39 37 59 42 34 36 34 38 40 41 43 46 47 47 47 49 51 53 54 55 58 60 61 63 64 66 68 67 68 69 69 70 72 74 77 80 83 87 90 91 93 91 89
35 29 29 26 28 32 36 39 44 43 42 46 47 46 49 52 56 57 58 58 61 62 65 67 67 68 68 68 68 69 71 72 74 78 81 84 86 89 92 91 91 89 82
34 33 33 31 34 36 37 40 42 43 44 47 52 44 55 57 58 59 60 62 64 68 70 70 70 71 69 68 70 73 76 77 79 80 82 85 88 91 92 91 90 85 77
33 33 37 36 38 40 41 41 42 43 47 42 51 61 63 59 61 65 66 68 71 71 71 72 73 70 69 72 76 79 82 83 82 82 85 87 91 92 91 89 86 78 69
36 37 37 39 39 39 40 44 45 48 51 49 51 65 65 63 66 69 71 71 73 74 75 75 71 71 75 78 80 82 85 85 86 86 90 92 92 92 87 85 78 70 63
40 41 41 41 41 43 46 47 51 48 46 63 63 64 67 67 71 74 74 74 76 76 77 75 75 76 78 81 83 85 87 88 88 89 93 94 91 87 82 77 70 63 59
42 42 44 46 45 49 51 52 52 58 60 63 64 69 71 73 74 74 77 78 78 77 75 76 78 79 81 84 87 88 88 90 90 90 91 92 87 83 75 70 64 59 56
45 46 49 50 51 52 54 55 58 62 65 69 71 72 73 76 76 78 79 77 76 75 77 79 80 82 86 88 89 89 90 92 93 94 87 87 82 76 71 64 59 55 51

GFSMA_500_spd_093.txt.gz
Wind_Speed
34 33 25 23 22 19 21 25 23 25 28 28 25 27 28 24 21 21 23 24 22 21 21 21 22 22 22 22 24 24 26 27 27 28 28 28 29 29 29 30 32 35 38
37 33 27 24 24 22 20 29 25 26 27 30 28 27 27 22 22 23 22 22 23 22 23 23 23 24 24 23 24 25 28 30 30 29 29 29 31 33 35 35 35 36 38
36 32 28 26 26 23 27 26 28 29 29 30 29 29 27 26 28 22 21 25 23 25 23 26 26 27 27 27 28 30 31 32 31 31 32 34 35 37 39 37 37 37 40
34 32 28 25 23 25 27 24 26 27 29 30 28 26 23 26 23 20 24 25 25 25 27 26 27 30 31 32 33 34 34 33 34 35 33 36 35 33 36 38 39 40 41
34 33 31 30 24 28 25 28 28 27 29 28 26 22 22 22 23 23 23 25 27 28 28 28 30 33 34 35 35 34 35 37 39 40 40 39 39 39 40 39 40 44 46
29 37 32 27 24 26 26 28 30 30 31 27 24 25 23 22 21 21 23 25 26 28 30 31 33 36 36 36 37 39 40 41 39 40 38 36 38 42 46 47 47 48 51
25 31 32 29 29 28 27 30 31 32 29 27 23 21 22 24 22 23 25 27 29 30 32 35 37 39 39 40 40 40 42 41 40 39 41 42 46 51 51 49 50 52 53
28 28 29 34 33 29 29 30 30 28 25 20 22 22 22 22 25 25 27 30 32 34 37 38 41 41 40 40 41 41 41 40 39 41 44 46 50 48 49 51 52 50 50
33 32 30 34 32 32 30 31 28 25 21 22 24 25 24 24 26 27 30 33 36 38 40 42 43 44 44 42 42 40 36 36 38 40 42 46 48 50 50 51 52 53 52
31 30 27 28 28 28 23 22 21 22 24 24 25 27 27 25 27 29 33 37 39 40 41 44 45 46 45 46 42 40 38 38 43 45 45 47 50 50 50 52 52 54 53
31 30 29 26 23 18 19 22 23 24 27 28 28 30 28 27 31 33 34 37 40 41 44 45 41 41 48 52 47 47 43 42 43 46 48 49 50 50 54 56 56 54 54
16 14 14 16 19 20 24 24 26 26 28 31 33 34 34 33 34 37 40 42 44 45 45 45 45 44 44 44 43 42 45 46 48 49 51 52 52 54 58 59 58 58 58
14 15 16 18 21 23 26 28 29 31 31 35 40 37 34 38 44 43 46 43 45 47 47 44 44 45 44 43 43 44 48 50 52 54 55 55 55 59 61 61 61 62 62
14 13 15 18 20 20 24 27 32 34 38 37 38 37 36 47 46 45 44 46 47 46 48 43 45 46 46 46 46 49 52 55 58 59 59 58 59 63 63 64 65 64 62
15 15 15 16 18 20 23 26 29 34 36 38 39 41 44 48 50 48 48 50 49 46 47 50 49 51 50 48 51 53 56 59 61 63 62 62 65 64 66 67 66 63 62
14 15 17 19 21 23 27 31 33 35 40 42 45 48 51 50 49 51 52 50 47 48 47 50 54 52 51 52 56 59 60 61 62 63 65 67 68 68 68 68 64 63 65
17 17 20 22 25 28 32 35 39 42 45 48 52 57 55 56 45 50 52 46 47 49 52 52 53 51 50 52 57 63 65 64 63 66 68 69 71 72 70 68 65 65 68
19 21 24 26 29 31 36 36 41 49 46 52 55 56 51 53 53 50 45 48 52 52 53 55 59 57 55 60 65 68 66 67 72 75 75 74 74 73 70 67 67 68 70
22 26 27 29 29 33 30 38 37 29 31 33 35 41 43 44 49 53 53 57 55 56 56 60 58 56 59 68 70 69 68 70 74 82 81 77 75 73 71 70 71 73 75
27 28 30 31 29 33 33 35 36 37 37 37 38 38 41 46 51 46 58 55 56 60 62 64 60 58 65 71 71 75 71 77 84 84 82 78 76 73 73 75 76 77 78
29 31 32 33 35 37 38 40 40 39 40 42 45 46 50 51 57 58 55 52 58 59 65 66 62 71 73 77 68 78 82 80 83 87 83 78 74 75 77 78 79 80 82
31 33 36 38 40 41 41 42 43 42 43 44 45 46 49 53 61 59 48 54 49 61 65 65 72 75 71 78 81 80 81 83 85 82 81 77 78 79 79 82 84 83 82
35 37 39 40 42 43 43 44 46 48 47 49 50 49 49 51 49 53 59 50 63 58 69 67 77 74 77 82 77 79 83 87 85 84 84 82 82 83 86 86 84 83 83
38 39 40 42 44 45 46 48 50 50 51 52 54 55 55 54 52 58 71 73 70 74 75 75 81 82 78 78 79 83 85 88 89 89 90 87 87 89 88 85 83 83 82
41 41 43 45 47 49 50 51 54 56 57 57 58 58 59 60 59 60 64 71 73 74 74 75 83 82 82 83 89 92 92 94 92 92 94 94 91 90 87 84 82 81 82
42 44 47 49 51 52 53 55 57 57 57 57 58 60 63 65 65 65 71 72 74 77 79 79 80 83 86 90 98 98 97 96 95 94 97 95 94 91 86 82 80 81 87

GFSMA_500_spd_096.txt.gz
Wind_Speed
39 39 38 32 31 32 25 24 24 23 21 19 22 25 26 25 27 28 24 22 21 21 20 20 18 18 18 18 20 21 25 24 25 25 27 27 27 27 28 30 31 32 33
41 44 40 36 35 32 25 23 24 25 20 22 22 28 24 27 27 26 24 21 21 21 22 22 19 20 19 20 24 25 25 26 27 27 28 28 30 31 33 33 35 35 33
38 40 42 37 36 31 29 25 28 26 28 26 29 27 27 27 26 27 26 24 24 24 23 22 22 21 23 25 25 28 28 28 29 29 29 31 33 33 34 35 35 33 36
37 40 41 37 36 31 28 30 29 27 27 31 24 28 28 29 29 26 29 27 25 24 26 24 25 25 27 28 29 31 33 33 33 33 34 36 38 37 36 34 35 37 36
41 44 46 41 36 30 30 31 29 27 27 27 27 27 28 27 26 25 26 23 22 25 27 23 26 28 30 31 33 35 35 34 35 36 36 37 37 33 31 31 34 40 43
41 42 44 39 33 34 30 30 30 29 27 27 27 29 27 25 22 20 23 23 25 27 24 28 29 30 32 34 36 37 38 37 37 38 40 40 37 35 35 38 39 40 41
42 44 39 35 34 34 31 27 27 27 30 30 28 30 27 24 22 23 27 27 23 23 29 31 31 33 35 37 39 39 39 39 40 40 42 39 37 35 35 37 40 43 46
41 36 33 33 36 34 31 31 32 32 30 29 28 30 23 18 22 24 23 25 28 29 32 33 34 38 38 40 41 42 43 44 44 41 39 39 35 35 38 43 45 47 46
36 38 34 26 30 34 35 37 35 33 32 28 30 24 17 21 25 24 27 29 31 32 34 37 38 39 40 42 44 47 46 45 45 46 47 45 40 39 43 47 48 49 48
27 30 34 30 31 33 34 33 33 32 31 25 26 20 23 25 27 28 32 32 32 34 37 39 39 40 42 45 47 46 47 44 44 46 47 45 45 44 48 51 52 51 49
30 31 31 32 31 31 30 30 30 24 24 25 23 24 25 26 28 31 31 34 36 40 41 41 40 43 44 46 48 48 47 43 44 45 46 48 49 50 53 56 56 55 52
34 36 34 37 32 29 24 20 20 20 22 23 26 28 29 31 32 33 38 41 45 38 45 45 46 46 46 47 43 44 46 44 45 45 46 48 51 54 56 58 59 57 57
29 25 20 19 17 17 20 20 21 22 25 30 32 34 34 35 39 42 42 45 41 48 51 52 50 50 47 49 47 48 48 49 51 47 48 50 54 58 60 60 59 59 62
11 13 13 15 17 17 20 22 22 25 28 30 33 35 38 41 44 44 45 45 53 56 58 56 53 55 53 47 51 53 54 56 51 49 49 54 58 61 62 58 58 60 64
15 14 15 17 19 20 19 22 24 25 28 28 31 35 39 41 45 48 49 51 52 59 59 58 59 56 47 48 53 55 55 55 54 49 50 56 58 61 61 64 64 66 69
17 18 18 19 20 21 23 25 26 27 29 30 35 38 41 44 50 54 55 57 59 62 61 60 60 54 49 52 55 57 56 60 58 54 60 61 62 62 63 66 69 72 76
21 19 19 19 20 21 25 26 27 30 34 35 36 42 48 57 59 58 66 61 58 60 57 58 61 57 51 55 55 58 61 61 63 61 63 64 66 68 69 71 73 78 78
22 22 23 22 21 23 25 30 32 32 34 39 45 32 32 40 43 43 42 56 58 55 53 57 62 61 55 60 62 66 65 64 57 66 73 74 77 77 77 75 79 78 79
25 24 24 24 26 27 29 30 33 32 34 37 34 36 40 43 42 43 46 47 51 53 60 59 62 60 60 62 70 76 64 60 62 69 67 74 72 74 77 84 82 81 79
28 28 27 29 30 31 32 32 34 37 39 41 40 43 45 46 46 48 51 53 55 58 59 60 67 77 66 63 66 64 72 69 73 73 74 70 77 80 81 83 83 83 84
27 29 29 30 32 34 34 37 40 41 44 46 47 48 49 50 51 52 55 57 59 61 65 68 72 71 70 75 68 71 72 79 80 79 72 78 77 83 85 85 86 84 85
29 30 32 34 35 37 40 43 45 47 47 48 50 52 52 54 54 56 56 57 58 59 64 64 56 71 72 68 74 74 78 73 84 83 79 79 87 89 89 92 92 92 91
35 36 37 38 40 42 44 46 48 51 52 53 55 56 57 58 58 60 60 61 60 62 63 62 71 71 78 86 78 73 81 84 86 87 87 89 94 95 94 97 97 93 92
40 41 42 44 45 46 47 49 51 52 54 56 58 60 61 61 62 63 64 65 65 64 66 69 70 72 74 77 80 81 87 87 86 88 93 94 96 98 101 105 100 95 91
39 43 45 46 45 47 48 50 52 54 55 56 59 61 63 65 66 66 66 67 68 69 69 70 72 73 77 82 86 87 87 89 91 95 101 102 99 105 105 103 101 96 91
36 39 42 44 46 48 50 52 54 57 58 59 63 65 64 65 65 66 66 68 70 71 72 72 74 79 83 86 88 89 92 93 95 99 103 107 110 109 105 102 99 94 88

GFSMA_500_spd_102.txt.gz
Wind_Speed
26 27 23 32 34 33 29 25 24 22 19 16 16 17 19 15 16 17 20 21 20 20 18 22 22 19 16 14 14 13 11 12 17 16 18 20 22 24 26 26 26 27 27
28 23 27 34 36 32 31 27 27 25 17 18 20 20 21 19 18 23 24 24 21 20 23 20 23 19 15 15 16 16 18 17 18 19 20 21 24 26 26 26 26 26 28
27 26 27 35 36 35 33 29 27 26 21 21 23 24 22 23 23 24 26 24 24 22 25 20 23 18 14 16 20 22 22 17 22 21 21 22 24 26 28 28 29 30 30
25 27 29 32 34 39 34 30 29 29 28 23 28 26 27 26 25 21 25 24 25 27 25 20 23 17 18 23 22 22 18 22 23 23 24 25 28 28 28 30 30 30 32
36 32 31 29 34 37 34 28 31 35 29 27 31 28 28 26 26 26 22 25 28 27 24 24 24 21 19 18 16 21 24 25 24 25 26 28 30 29 31 33 33 33 32
40 33 32 29 32 37 40 37 31 37 33 29 28 27 28 27 29 28 28 27 28 22 21 18 18 19 20 19 21 25 25 25 26 28 29 30 32 33 34 33 32 33 32
39 38 30 28 31 33 43 38 41 40 38 30 33 31 30 28 29 29 30 30 24 17 16 16 16 17 19 21 24 26 25 27 30 31 30 32 33 35 35 38 34 35 32
44 43 43 38 38 36 38 32 41 41 39 34 32 33 31 29 30 31 29 26 19 13 14 15 18 21 22 25 27 27 29 31 32 33 34 34 37 38 36 38 39 36 36
39 40 40 42 41 35 38 36 39 42 42 33 33 32 32 29 30 29 23 19 15 16 18 21 23 24 26 26 29 31 32 34 35 37 37 39 41 43 39 41 42 39 40
41 43 43 41 42 41 44 45 40 32 33 31 33 33 30 25 26 19 17 15 20 19 21 23 26 27 27 31 32 31 35 37 39 41 41 41 43 43 44 45 46 45 46
46 40 38 39 39 37 33 29 28 28 25 31 28 25 21 17 17 17 16 19 22 23 27 28 31 31 33 36 40 45 43 43 42 49 48 49 49 47 48 50 49 49 49
37 44 42 35 29 32 31 27 23 23 25 24 17 14 14 14 17 20 18 20 24 27 32 35 35 36 40 42 43 46 47 49 51 53 52 57 58 57 51 48 53 53 52
29 29 25 26 30 21 24 23 23 24 20 14 15 16 19 18 21 23 23 25 29 30 33 33 35 36 40 46 50 52 54 54 53 53 60 61 63 59 52 51 51 57 55
20 17 20 21 22 22 26 21 13 15 17 17 20 21 21 19 20 23 26 29 30 33 33 35 37 45 47 47 55 59 53 54 53 54 58 59 56 57 56 61 58 57 57
15 18 15 11 11 14 12 12 15 17 20 21 20 20 22 22 23 25 29 31 33 35 37 40 41 44 41 43 46 46 49 52 55 59 65 65 58 57 61 66 66 57 58
8 11 11 12 13 12 15 17 19 19 20 22 20 22 24 25 26 28 32 34 37 42 37 39 42 45 49 49 50 51 51 52 52 54 55 57 53 57 63 71 64 70 66
6 6 8 9 11 13 15 16 17 18 21 23 23 24 26 29 31 35 33 34 39 38 42 45 48 48 53 55 56 58 57 57 56 58 61 61 61 58 59 66 74 77 72
8 11 13 13 15 17 19 19 19 21 23 24 27 30 31 33 35 37 38 40 44 47 49 52 54 55 58 59 60 61 61 62 63 64 64 64 66 62 63 68 73 83 69
17 14 14 17 20 21 22 23 25 26 28 30 31 33 36 36 35 38 42 45 46 50 51 57 62 62 63 64 65 67 67 68 68 70 71 72 71 72 76 74 73 69 65
16 18 17 19 21 25 26 26 26 29 32 34 35 36 37 39 42 44 46 49 49 60 61 63 65 66 67 68 69 70 71 72 73 74 75 75 76 77 80 80 75 73 75
22 22 21 21 23 24 24 28 31 34 34 36 38 40 41 44 46 47 51 55 58 61 64 66 68 69 71 73 73 74 75 77 77 77 76 75 75 77 78 79 80 81 84
23 22 23 23 24 26 27 31 34 37 39 40 42 44 48 50 53 54 58 60 61 65 67 69 72 75 75 76 77 79 82 81 80 79 78 78 79 78 79 79 80 81 82
24 25 26 27 29 31 32 35 37 40 43 44 47 50 53 55 57 60 62 63 66 68 70 73 75 75 77 80 81 81 81 81 81 80 79 78 78 78 80 81 83 84 87
26 28 28 30 32 34 36 37 40 43 44 47 50 52 56 58 61 63 67 70 72 73 73 75 77 78 77 78 79 79 81 81 81 82 86 87 89 89 89 90 90 91 93
25 26 28 29 30 33 35 38 41 44 47 49 52 57 61 64 65 66 68 70 72 75 76 75 76 77 79 79 80 82 84 86 88 90 94 95 96 96 96 96 97 99 101
30 32 32 32 34 38 41 46 49 53 53 54 59 58 58 61 64 67 70 73 74 73 74 77 78 79 80 82 84 87 90 94 96 98 100 102 104 108 107 106 107 110 110

GFSMA_500_spd_105.txt.gz
Wind_Speed
42 32 26 24 26 30 28 27 25 20 20 19 13 9 16 7 11 11 10 12 13 14 13 14 14 14 16 17 16 16 16 13 12 14 17 13 14 14 15 16 15 17 18
40 35 29 24 30 34 33 31 29 22 20 21 16 13 11 14 13 15 16 16 18 16 15 16 16 15 16 17 16 18 17 16 16 18 14 15 16 16 16 17 18 19 21
32 30 25 25 30 36 35 32 31 27 23 22 19 15 12 15 17 16 17 16 18 18 17 17 18 17 16 18 18 18 19 24 20 19 16 16 19 20 20 20 21 22 24
32 25 25 26 35 34 37 35 31 30 24 22 21 17 18 19 21 17 17 17 18 21 20 20 20 19 19 20 22 22 25 23 20 18 18 19 22 21 22 23 24 26 26
30 30 28 27 34 36 38 36 32 31 26 24 21 22 23 20 19 20 22 19 20 23 23 21 19 21 20 21 25 26 22 21 21 21 21 23 25 25 25 27 28 29 28
29 31 27 26 31 32 35 37 36 33 28 25 27 26 26 25 19 19 22 23 23 23 21 18 19 20 20 20 22 22 22 23 24 24 25 27 27 28 29 31 31 33 32
31 35 35 30 33 29 33 32 32 33 32 30 27 29 29 29 28 25 19 22 24 25 18 16 16 16 16 19 22 24 26 27 28 27 28 28 27 30 32 35 36 36 35
37 37 35 37 30 27 22 28 30 35 32 31 31 34 33 29 29 28 29 23 19 18 16 16 15 18 20 20 22 26 27 28 28 30 31 29 30 30 33 37 37 38 38
38 37 42 41 31 26 24 27 28 29 32 34 32 35 34 30 30 29 28 25 18 14 15 16 16 17 20 21 23 27 28 29 32 33 35 35 35 33 37 38 41 43 45
41 39 42 42 37 30 32 30 30 32 36 36 33 33 27 29 29 31 25 20 16 15 15 17 17 18 20 23 25 28 31 33 36 39 40 43 45 43 44 43 43 48 48
45 42 40 36 37 32 36 34 33 37 40 32 28 26 25 27 30 28 20 18 16 19 19 21 21 25 28 28 29 31 35 36 39 43 46 49 49 49 47 45 50 53 56
35 45 39 35 33 32 33 38 38 31 29 28 25 23 24 26 23 21 19 21 21 22 23 22 24 28 31 34 37 35 35 38 38 40 43 48 52 52 51 51 51 49 48
34 38 40 34 31 33 34 33 30 28 27 24 22 23 21 21 23 23 21 24 25 25 25 25 28 30 32 35 36 39 45 42 42 43 41 42 44 46 49 51 55 59 53
33 32 30 33 30 28 30 29 24 25 26 20 16 17 21 22 24 27 28 29 28 27 26 25 31 34 37 41 42 43 42 44 47 48 49 49 50 49 49 52 55 56 54
22 26 24 26 25 23 24 24 29 24 17 17 21 23 24 24 25 27 28 26 29 28 27 29 35 38 42 39 42 44 45 49 51 52 55 53 55 54 54 54 55 56 56
11 10 11 15 17 18 17 20 19 14 13 18 20 23 22 24 27 28 29 31 32 33 34 34 33 36 39 41 46 50 48 50 56 55 58 58 58 59 57 58 59 60 59
8 8 11 14 16 18 17 17 17 19 19 19 22 23 25 28 28 29 31 34 35 39 41 41 43 43 45 51 49 52 54 57 59 60 62 61 60 61 62 62 64 64 64
10 13 13 14 14 16 18 19 20 21 20 21 24 25 26 29 29 31 34 35 38 39 42 45 47 50 51 55 53 63 64 63 63 66 66 66 66 67 67 67 68 70 70
13 15 14 15 19 21 21 20 19 20 22 25 27 28 29 31 33 35 36 38 40 41 47 49 52 51 54 59 67 66 66 68 70 70 71 70 70 70 70 71 73 72 72
16 17 18 18 19 20 22 24 24 25 27 28 29 32 33 35 36 39 41 42 43 46 50 51 52 64 66 65 66 69 72 72 74 76 76 73 75 76 76 77 75 74 74
21 20 19 19 19 21 20 25 27 25 29 32 33 35 36 38 40 42 45 48 51 52 55 58 60 63 65 68 71 76 77 78 76 76 77 79 78 78 77 77 78 79 78
21 22 23 23 21 20 20 23 27 29 31 34 36 37 40 43 45 46 47 45 51 56 58 62 63 68 69 72 73 75 76 78 78 78 77 77 79 79 79 79 79 81 82
21 21 21 22 23 24 25 28 32 34 35 37 39 40 42 43 45 47 53 48 56 60 61 65 66 69 71 74 76 77 77 78 79 80 82 81 81 82 84 85 86 88 90
22 24 25 25 24 27 28 29 30 31 33 35 38 41 45 48 48 51 49 61 53 64 65 69 70 73 75 76 77 78 80 81 83 84 85 85 87 87 88 91 93 96 97
20 23 24 25 26 25 24 26 28 31 35 40 43 45 47 50 50 49 59 60 61 67 71 73 76 78 80 81 82 83 85 86 87 89 91 94 95 94 95 96 100 103 107
24 25 26 27 28 28 29 31 34 37 39 41 46 45 47 52 53 54 59 63 67 70 74 78 79 82 83 83 85 87 88 89 92 94 98 100 103 105 101 104 109 113 117

GFSMA_500_spd_108.txt.gz
Wind_Speed
49 41 35 24 24 25 28 27 23 20 19 16 18 15 13 10 8 11 10 11 13 13 13 12 13 13 16 15 17 19 19 19 19 20 20 18 20 17 16 16 17 15 15
50 38 37 29 26 26 31 28 25 26 24 20 19 14 11 14 14 14 11 16 18 17 15 14 15 15 17 18 19 21 21 22 22 22 23 22 22 20 18 20 19 18 17
43 40 36 30 27 29 28 28 29 30 28 19 18 15 15 16 18 12 11 13 15 15 14 14 18 18 18 19 21 23 24 24 24 24 24 23 23 23 22 22 23 20 19
43 43 36 30 30 29 32 33 33 32 31 20 19 19 18 20 18 14 15 14 15 15 15 17 22 23 20 19 22 24 25 25 27 24 26 26 26 25 24 24 23 22 24
37 39 37 31 33 33 32 34 35 34 34 24 21 23 23 22 17 17 18 18 18 18 19 21 23 23 20 21 23 26 26 28 29 30 27 28 27 26 27 25 25 26 26
40 34 30 32 35 34 34 33 34 35 35 29 27 27 27 22 23 22 21 20 19 20 22 23 24 22 21 22 23 25 28 31 29 26 27 29 28 29 29 28 27 27 28
37 34 33 33 29 29 34 36 36 36 37 32 30 26 19 23 28 27 26 24 22 21 24 24 22 21 19 22 24 25 24 25 27 27 29 30 32 31 30 28 28 30 33
37 33 31 32 28 29 27 32 37 37 36 39 33 32 30 30 26 30 27 25 25 26 25 24 21 19 19 19 19 21 23 27 31 32 32 32 33 33 32 32 34 37 37
25 34 34 37 34 28 25 30 27 30 31 33 36 33 31 29 31 28 32 29 27 28 28 23 22 20 19 19 21 25 26 30 31 31 32 34 36 38 37 39 44 45 45
34 35 38 34 33 32 28 27 25 23 24 28 32 33 32 33 36 30 29 31 29 29 29 29 24 22 23 23 26 25 29 30 32 34 36 37 39 41 44 47 51 48 48
35 39 40 39 37 36 37 31 31 31 31 27 27 30 35 31 30 28 29 32 29 27 29 29 28 28 27 27 29 30 31 34 35 36 37 38 42 43 43 47 52 54 55
28 36 34 41 37 40 38 34 32 31 31 31 27 30 26 31 32 29 30 33 27 28 28 29 31 32 31 32 33 34 36 37 37 38 40 46 48 45 45 46 46 46 50
41 40 37 37 35 36 36 34 29 41 33 35 31 32 27 29 31 30 29 28 28 31 29 26 28 31 32 33 33 36 37 38 41 44 46 45 45 46 48 50 50 50 49
38 40 36 35 36 34 36 32 32 31 28 29 33 34 30 31 26 25 26 30 30 31 30 26 31 30 33 34 37 39 40 43 45 44 46 48 48 46 51 54 55 56 55
34 39 33 36 36 37 35 36 33 29 29 28 29 31 29 25 25 29 30 32 34 32 29 28 30 33 35 38 38 38 40 40 44 49 50 52 54 57 58 61 62 62 61
26 29 31 31 29 34 33 32 30 30 30 30 28 29 25 25 28 30 34 32 33 34 33 31 34 35 38 40 42 45 47 47 51 53 55 58 62 61 63 64 63 63 64
19 20 24 24 25 22 21 21 24 29 31 27 24 21 24 28 33 30 32 32 32 34 37 34 38 42 42 43 42 50 52 53 53 55 56 66 62 61 63 66 67 68 69
8 13 17 17 18 18 18 17 16 17 18 21 26 28 29 32 29 30 32 33 36 37 38 40 40 41 43 48 50 54 52 53 58 64 64 65 67 70 71 73 75 73 71
13 16 16 17 19 21 23 23 22 21 24 27 29 28 28 29 31 32 34 35 37 38 40 43 45 46 48 49 54 57 58 61 65 67 69 70 72 73 73 72 73 73 73
18 19 20 20 21 22 23 24 24 26 28 28 28 31 32 32 33 35 36 38 40 42 44 47 50 54 54 52 56 57 60 65 67 70 71 72 74 75 76 76 76 76 76
19 19 19 19 20 22 22 25 27 30 30 31 33 33 34 35 37 37 38 40 43 47 49 50 54 52 50 58 53 58 63 64 69 70 73 77 78 78 79 80 80 81 82
20 23 25 24 23 23 24 25 26 29 32 34 36 36 37 38 39 39 41 42 41 45 48 51 50 61 60 59 58 66 70 69 72 75 76 80 82 82 83 85 86 87 87
18 20 22 24 24 25 26 27 28 29 31 33 34 36 37 36 35 37 39 41 44 49 53 52 58 61 58 62 66 71 73 77 81 82 83 83 84 84 86 89 90 91 92
15 16 18 21 23 24 26 29 30 31 32 32 32 31 32 33 35 40 44 43 41 51 60 59 62 64 67 71 73 77 80 83 87 89 89 87 88 88 89 92 96 98 100
17 16 15 16 19 22 24 28 30 32 33 32 32 34 32 37 38 48 49 56 49 60 60 62 67 70 73 78 82 85 87 89 89 92 92 93 94 93 94 97 101 105 107
22 21 21 23 24 25 26 27 31 33 34 35 38 38 38 37 48 49 46 50 59 63 67 71 74 78 82 86 88 89 89 89 91 91 96 96 99 102 101 103 107 111 115

GFSMA_500_spd_111.txt.gz
Wind_Speed
36 37 39 36 26 28 22 19 21 23 23 23 20 16 18 17 15 16 15 14 13 12 9 12 16 14 15 18 19 21 23 24 23 22 22 23 22 21 19 18 20 22 22
44 36 38 44 39 36 29 23 25 25 26 27 20 18 18 17 16 16 16 16 15 13 15 18 19 15 17 18 21 24 26 25 25 26 25 24 24 22 21 22 23 23 23
42 41 35 34 35 34 30 28 30 29 29 26 20 21 17 18 19 17 12 12 16 16 16 19 19 19 19 21 23 25 28 29 28 27 27 27 25 25 26 26 23 22 24
46 45 47 37 32 33 29 29 28 27 29 26 24 23 21 20 19 15 15 16 17 16 17 19 20 21 22 24 25 28 30 30 30 28 29 29 29 29 31 29 25 25 25
45 46 51 41 38 34 29 29 30 32 31 30 26 23 22 21 20 19 22 21 21 20 20 21 23 24 25 26 28 29 30 30 31 30 30 29 31 34 31 31 29 28 29
46 52 48 41 39 35 32 27 32 33 34 34 31 24 23 24 24 24 26 23 22 22 24 25 26 26 28 29 30 30 30 30 31 31 32 32 35 34 31 31 31 30 30
49 53 46 41 36 33 28 30 34 35 36 35 31 28 25 25 28 30 30 26 26 26 27 29 30 31 29 29 29 28 29 30 31 31 33 33 33 33 33 33 34 34 32
48 41 40 40 36 33 33 33 35 38 33 33 29 31 30 30 30 27 27 26 33 31 33 33 33 31 29 29 28 28 30 34 33 32 33 33 34 36 35 36 36 36 37
43 45 39 32 32 29 27 29 31 31 33 32 33 35 35 36 37 36 32 30 30 36 33 35 33 32 30 31 29 29 30 31 31 33 34 34 35 36 35 37 39 42 44
36 44 34 31 30 31 29 27 27 33 35 33 34 32 34 35 39 40 34 34 38 37 38 37 34 33 33 33 33 31 31 33 33 33 34 36 35 37 39 41 43 45 46
24 23 27 33 32 33 32 30 27 32 31 30 28 29 31 35 32 34 37 37 35 34 36 34 34 33 31 35 33 32 33 34 33 34 35 37 39 41 41 41 44 47 48
28 35 38 37 36 39 39 37 34 31 32 31 31 30 30 28 26 27 34 36 33 34 34 33 33 33 32 34 34 33 34 36 38 39 41 42 42 43 45 48 48 45 47
34 32 37 42 38 41 43 38 41 37 36 34 34 32 29 30 30 30 35 33 35 37 33 31 33 35 34 34 36 36 39 39 42 40 41 42 44 46 48 49 51 51 51
33 48 46 41 36 37 43 41 42 46 34 33 37 37 33 33 28 27 32 36 36 31 29 28 29 30 33 38 40 41 43 40 39 40 38 41 42 43 48 51 53 54 57
34 41 44 44 34 35 42 37 41 42 37 30 43 39 34 37 37 35 34 32 33 29 28 29 28 31 35 39 39 39 40 40 41 42 45 48 49 51 52 52 54 59 67
25 38 42 43 39 34 38 34 32 37 34 33 34 35 40 45 42 35 32 31 30 30 29 29 30 33 36 37 39 41 43 45 44 45 45 51 53 55 59 60 63 65 68
15 27 26 35 36 38 35 27 32 34 32 33 37 41 37 36 36 31 29 27 30 35 38 28 34 37 36 39 42 43 45 47 47 50 53 53 55 57 59 63 68 68 68
12 14 23 31 33 30 38 23 23 21 26 28 32 32 29 29 25 25 28 34 35 37 37 35 35 38 39 41 43 45 48 50 52 54 60 60 60 61 63 63 67 69 70
7 8 15 27 31 31 28 30 19 18 17 20 21 23 25 27 30 32 34 35 35 35 36 38 42 43 43 44 47 48 51 57 56 55 57 57 58 62 67 71 72 73 77
13 12 9 8 11 17 21 17 19 20 22 24 26 30 33 35 36 36 35 35 35 36 39 42 44 46 48 49 49 55 51 54 58 58 58 60 66 69 71 74 78 80 81
19 17 17 18 18 18 19 22 27 30 32 33 34 36 38 38 38 37 36 36 38 39 40 45 43 47 48 49 51 57 58 55 61 60 64 69 72 74 77 80 82 84 84
21 22 22 23 23 24 25 27 29 31 32 33 36 39 40 38 37 37 39 39 39 40 38 43 50 45 54 54 56 59 60 60 64 69 70 75 80 82 83 86 87 88 91
16 19 22 24 25 26 27 27 29 31 31 32 32 33 35 36 37 39 38 38 39 41 42 44 51 50 57 55 63 65 67 71 74 77 80 82 85 84 85 88 91 93 94
15 15 16 18 20 23 25 26 28 30 31 33 34 35 36 36 36 35 39 41 43 44 52 55 49 49 57 66 68 70 74 76 79 83 84 83 84 86 89 91 95 98 101
16 17 17 17 18 20 21 22 21 22 25 28 31 34 36 36 37 40 42 44 44 47 52 59 58 57 72 71 73 79 80 82 83 82 82 84 87 89 92 96 100 104 108
19 18 18 20 20 21 20 22 25 26 29 31 31 34 38 40 40 44 47 49 53 54 60 59 60 70 73 78 77 80 84 82 79 82 86 88 92 97 97 101 106 112 115

GFSMA_500_spd_114.txt.gz
Wind_Speed
25 23 24 30 33 34 21 24 27 23 24 26 25 18 19 15 13 13 11 12 15 16 15 15 15 14 12 17 20 21 23 24 26 25 26 26 26 26 25 25 23 21 21
30 32 30 27 34 30 23 25 21 21 24 23 24 21 21 18 17 17 18 18 17 18 17 17 17 16 17 22 22 22 23 25 27 27 27 28 28 28 28 25 24 23 26
28 37 35 32 33 29 29 27 25 30 27 28 24 19 23 21 20 20 19 18 19 18 18 19 21 17 19 25 24 24 23 25 27 30 31 31 30 30 30 26 26 26 29
30 33 42 38 39 38 33 29 31 31 29 28 26 26 25 22 22 22 20 19 18 16 18 19 19 19 22 24 26 26 26 27 30 33 32 32 32 33 32 30 29 29 31
35 37 41 42 39 44 37 34 36 34 33 31 31 27 26 24 25 24 23 21 18 18 22 20 20 22 24 25 27 29 30 30 31 33 34 36 34 35 34 34 33 34 32
35 38 42 38 40 42 41 38 38 35 33 32 30 30 29 26 26 24 22 21 22 25 27 25 25 23 28 29 30 31 32 33 33 33 36 35 35 35 37 36 39 35 33
38 40 47 44 43 36 36 37 37 37 35 34 33 31 29 24 26 23 24 23 26 31 29 29 29 28 28 31 34 36 36 35 36 36 37 38 37 37 37 41 33 30 35
29 44 47 51 46 35 38 36 35 34 36 37 36 32 31 28 26 26 28 26 26 26 24 27 34 34 34 35 38 38 38 38 38 39 38 37 36 38 37 34 32 35 37
23 30 46 51 45 41 35 33 34 36 38 39 36 36 34 31 31 30 30 28 29 26 26 33 32 36 39 40 40 39 40 40 40 40 37 38 38 35 33 34 36 36 37
27 32 41 46 44 41 39 34 33 32 35 35 35 36 33 31 33 35 34 38 33 36 34 33 36 39 40 42 41 39 40 42 39 36 34 36 34 35 35 36 38 39 41
10 38 45 45 45 39 35 34 31 29 32 34 34 33 34 33 36 32 34 31 33 36 39 39 38 38 38 40 41 39 39 39 37 37 34 35 37 39 38 39 42 43 42
17 21 37 44 45 32 33 33 30 30 31 32 35 37 36 36 34 33 31 25 26 35 39 36 37 36 35 38 40 38 38 38 37 38 37 39 41 43 44 42 43 43 42
21 21 24 24 31 33 33 34 33 34 29 28 35 36 34 33 32 30 27 25 27 37 38 39 37 34 32 36 35 35 35 36 37 38 41 43 44 45 45 42 42 43 42
23 27 28 27 40 37 34 34 38 38 35 35 33 35 37 34 33 29 27 28 34 40 37 36 34 30 29 31 31 35 34 36 38 41 45 46 46 44 42 44 46 49 50
27 26 34 32 39 40 40 38 40 43 41 39 38 39 40 39 36 37 32 34 42 45 38 33 31 32 33 30 31 35 38 39 42 43 44 46 48 46 47 48 53 53 53
27 23 23 36 42 43 41 43 38 42 43 40 39 42 41 40 42 39 38 43 46 44 39 34 27 28 27 31 35 36 38 40 43 44 46 47 49 50 55 55 58 55 60
14 18 20 36 39 43 38 38 41 37 39 36 33 35 35 33 37 40 44 51 49 40 34 28 29 30 36 35 36 38 41 44 46 46 48 48 50 54 57 59 60 63 59
15 16 17 28 31 34 38 41 49 38 36 27 23 28 34 38 37 45 48 44 39 29 29 31 34 33 34 35 39 42 44 45 47 51 54 50 54 58 56 57 55 58 60
15 10 8 20 25 35 39 46 41 41 32 33 35 30 28 36 34 31 28 27 28 31 36 37 36 36 38 39 42 43 45 47 49 50 56 54 55 60 59 63 63 66 69
13 11 7 4 16 28 32 39 32 30 29 29 25 24 20 20 21 25 30 35 38 38 38 38 40 41 41 43 43 48 48 51 55 54 54 53 61 62 64 69 74 78 80
17 14 12 9 7 5 23 28 34 23 14 18 21 23 26 30 34 36 37 39 40 40 41 41 43 44 45 47 48 47 51 52 53 56 60 63 67 66 71 76 79 84 88
18 20 18 16 14 12 11 12 16 18 22 25 27 29 31 34 35 37 40 42 43 42 43 47 47 47 45 47 52 50 52 53 51 61 62 67 71 76 80 83 86 90 89
14 20 20 20 20 19 20 21 21 23 25 27 28 29 30 31 34 36 38 40 42 44 45 47 48 48 50 51 52 55 57 61 66 69 73 76 79 82 83 87 85 84 88
16 15 17 20 23 24 24 25 26 27 29 29 29 29 30 31 33 36 39 41 42 42 43 46 48 49 54 57 61 63 63 64 69 73 76 79 83 83 83 81 85 89 92
19 17 18 18 19 21 22 23 25 25 22 19 21 22 25 28 29 32 36 39 41 44 46 46 48 55 60 62 64 68 71 75 78 82 85 85 79 77 79 83 89 95 100
24 22 19 19 19 20 21 22 22 22 24 25 26 28 31 33 35 39 42 44 44 47 50 52 56 64 68 65 66 71 74 76 83 82 78 77 78 81 82 88 96 103 109

GFSMA_500_spd_117.txt.gz
Wind_Speed
22 23 18 20 26 28 27 25 23 23 29 28 27 29 24 23 25 22 18 17 16 16 18 18 18 18 17 17 18 17 18 21 23 23 27 28 28 26 26 27 27 26 26
17 22 17 21 27 31 33 29 25 24 28 28 29 25 23 22 19 16 16 18 18 17 16 19 19 18 19 19 18 18 19 24 25 25 28 30 29 28 27 28 28 27 26
19 25 23 27 30 31 33 29 21 27 27 27 27 26 26 24 20 22 20 17 15 16 17 18 17 19 21 22 22 22 22 25 27 28 28 30 30 29 29 30 30 29 27
24 31 26 33 31 31 34 33 31 30 27 28 29 29 24 24 23 23 20 18 19 18 18 19 22 22 19 22 23 22 24 26 28 29 29 31 31 31 31 31 32 31 32
25 37 31 33 37 36 36 35 33 31 32 32 31 29 28 27 27 25 22 22 19 18 19 20 20 20 22 22 25 26 27 28 28 31 32 33 32 33 34 33 34 34 35
24 29 33 33 41 37 38 39 34 35 36 34 33 29 29 29 28 26 24 23 21 22 20 20 23 26 27 27 28 28 30 31 33 35 37 36 35 35 35 35 35 35 36
32 26 35 36 45 42 46 40 37 38 37 36 35 33 33 31 28 25 24 24 23 26 23 24 27 32 32 31 32 32 33 35 37 37 40 41 37 37 36 36 37 38 36
29 27 36 38 41 46 47 44 47 40 41 39 38 36 34 32 29 28 27 28 29 26 24 26 26 26 27 29 34 37 39 39 38 38 40 39 39 38 37 37 38 39 35
19 28 28 39 44 41 43 41 44 42 43 40 36 35 34 31 33 32 31 29 29 26 27 29 24 27 29 33 35 38 41 41 42 40 39 39 40 39 38 38 37 32 32
21 18 34 43 41 40 41 41 43 44 44 38 37 36 36 36 35 35 33 31 32 29 27 32 26 31 34 35 36 41 44 41 41 40 38 37 39 37 35 33 33 35 38
13 6 23 36 43 43 45 44 43 41 39 37 38 38 39 39 37 36 36 38 34 32 29 26 33 32 37 39 41 41 43 40 40 39 35 35 34 33 33 35 36 39 41
12 12 17 34 40 53 49 44 36 35 37 37 40 41 40 40 40 39 38 34 32 27 24 28 34 35 36 38 37 39 39 39 38 34 31 33 34 36 38 38 40 43 45
13 13 10 24 43 47 51 44 42 40 37 36 35 38 41 40 37 36 35 33 29 24 24 30 35 38 39 37 36 38 36 33 31 29 28 31 35 38 39 41 45 44 45
15 15 16 13 20 44 46 40 37 34 35 35 35 35 37 38 38 39 37 32 23 22 24 31 34 39 38 36 36 35 33 29 27 30 32 34 37 40 42 44 45 48 48
13 15 17 16 16 19 32 40 38 37 38 36 38 37 34 34 35 37 36 32 31 32 35 34 38 39 38 37 36 34 30 28 31 34 35 37 40 42 44 47 47 49 50
10 13 20 26 23 23 30 35 34 35 34 33 37 36 37 38 37 37 36 36 35 37 38 39 41 39 40 37 32 31 31 35 35 36 39 41 43 45 48 51 51 54 54
9 9 16 23 23 40 36 37 39 38 37 35 35 33 31 32 36 34 33 34 34 37 38 40 40 40 34 32 34 36 35 37 37 41 44 46 46 48 53 54 54 53 56
12 10 16 20 29 39 41 44 45 39 39 39 40 37 35 29 25 29 32 35 34 35 42 42 42 32 33 35 39 38 39 40 42 44 48 49 51 50 56 59 56 55 56
13 11 15 14 27 37 39 42 38 40 42 40 38 36 33 29 24 24 30 29 33 31 28 28 31 34 37 37 38 40 40 42 48 48 48 51 49 57 53 56 59 58 62
15 13 11 12 14 27 33 36 38 42 41 41 43 42 34 29 25 21 23 25 24 25 30 36 37 38 40 41 43 43 46 50 50 52 54 52 54 56 59 64 65 70 71
15 16 13 8 6 7 22 25 31 33 39 35 27 27 30 21 18 19 23 25 30 35 39 41 41 42 43 46 47 49 52 54 54 55 55 62 61 62 65 70 73 77 79
14 16 15 12 7 4 3 16 25 26 27 23 16 19 21 21 23 29 32 34 37 39 40 41 43 45 47 50 53 54 54 54 56 59 63 65 67 70 72 75 80 82 86
16 13 14 14 12 10 10 8 12 13 15 10 23 25 25 28 30 31 34 35 36 37 39 42 45 47 50 52 51 52 53 56 60 64 67 71 73 75 78 81 83 89 90
18 16 14 15 16 15 15 15 15 16 18 22 24 26 28 30 30 31 32 33 34 36 38 42 45 47 49 51 53 55 56 58 64 68 71 75 75 76 82 84 88 86 85
23 19 19 17 16 16 16 17 19 22 24 26 27 28 27 26 28 29 30 32 34 36 41 44 47 50 52 54 57 62 68 75 82 80 82 81 78 76 80 83 85 87 88
26 25 23 21 19 19 19 20 21 22 22 23 24 26 27 27 28 30 33 36 39 43 46 49 53 56 58 61 67 75 78 80 84 80 78 74 75 74 76 77 83 89 94

GFSMA_500_spd_120.txt.gz
Wind_Speed
23 20 20 15 17 16 24 26 24 26 27 34 33 34 33 29 25 28 28 30 31 31 31 22 22 19 17 18 18 19 19 20 18 16 19 24 24 24 28 27 25 24 25
19 17 18 16 13 16 24 23 24 24 29 33 33 34 30 27 27 28 31 32 36 19 22 22 21 17 16 17 16 17 18 19 18 16 20 25 28 29 30 29 27 26 26
17 14 17 19 17 19 25 28 31 29 26 33 35 37 32 29 26 25 24 25 20 19 18 19 19 17 17 16 18 20 21 20 21 21 24 27 29 29 29 29 28 28 27
19 22 22 23 22 23 27 31 34 34 31 28 37 37 29 29 26 23 23 22 21 20 20 17 14 16 18 19 21 21 21 21 22 22 24 26 27 29 29 28 29 29 29
19 21 25 24 25 24 33 36 39 35 33 26 31 32 33 31 26 27 26 23 21 21 18 16 16 20 20 20 20 20 21 23 26 27 27 29 29 29 31 32 32 32 32
21 23 23 24 27 31 35 36 35 38 37 32 31 35 36 31 28 27 24 24 22 20 19 20 19 21 21 22 24 25 25 27 29 30 31 31 31 32 34 35 36 34 32
19 22 25 30 27 38 38 35 38 40 38 36 35 40 36 30 30 27 27 25 24 24 24 23 22 22 23 26 29 31 31 33 34 35 35 36 35 35 35 37 35 34 32
21 22 29 33 33 42 43 42 41 44 40 36 37 37 34 32 30 28 28 28 27 28 28 26 26 26 25 27 29 28 30 33 35 37 38 38 37 36 36 35 33 32 31
22 22 27 27 37 37 43 43 43 41 38 39 36 36 34 32 31 32 32 31 30 30 30 27 27 29 29 32 27 30 30 33 35 38 41 38 36 35 33 31 31 31 33
22 22 27 31 39 40 43 49 48 44 44 39 40 37 35 35 35 36 36 34 32 30 30 28 30 30 28 30 30 34 36 37 39 38 37 35 32 29 29 28 30 32 33
21 21 26 31 47 51 43 49 48 47 49 47 40 42 41 36 39 37 37 35 34 33 33 29 31 32 30 31 33 33 34 36 38 34 32 32 31 29 30 30 32 32 34
20 19 22 22 37 44 40 46 48 52 48 48 48 45 44 41 40 41 41 40 40 40 37 34 33 32 35 35 34 35 36 37 35 32 32 30 28 28 28 29 32 34 38
19 20 17 16 28 41 41 45 48 49 49 47 45 42 39 39 40 41 42 42 40 38 36 30 30 32 33 31 29 34 34 35 34 30 30 26 25 28 31 33 34 37 39
19 17 18 16 18 34 44 45 46 46 48 46 47 44 41 42 43 44 43 40 38 35 35 30 25 30 31 30 31 36 36 35 29 30 28 26 30 33 35 36 38 40 42
19 17 16 17 7 25 41 45 50 50 47 44 42 41 41 41 41 41 40 39 36 35 30 31 29 31 35 35 37 39 39 35 32 29 29 32 35 36 38 39 41 43 47
17 16 15 14 14 12 19 42 51 48 43 41 39 36 36 34 35 36 39 39 36 34 31 30 29 31 34 37 37 39 39 35 31 31 35 36 38 40 42 44 45 49 51
16 15 13 13 15 18 20 19 28 40 37 41 40 38 37 36 36 34 35 36 36 37 36 33 27 32 37 39 36 40 36 34 35 39 39 40 42 45 48 49 49 54 56
19 17 17 17 20 22 30 28 33 32 35 34 33 38 34 33 34 29 32 37 37 34 31 35 35 35 40 39 39 36 36 36 42 42 44 45 48 48 52 56 55 57 55
21 20 20 21 21 25 37 36 38 35 34 39 37 41 38 35 34 32 34 31 29 28 28 29 32 35 32 26 32 36 40 42 43 47 48 49 53 56 59 59 60 61 64
21 24 23 20 22 22 33 41 35 40 38 39 42 42 43 41 36 40 38 31 28 28 28 27 28 29 33 36 40 42 44 45 47 51 52 54 59 61 62 62 65 68 71
21 23 25 21 19 14 22 30 37 37 43 45 43 42 46 42 32 40 34 24 21 21 22 27 32 35 39 44 45 46 47 49 50 52 55 58 57 59 62 65 68 72 75
22 20 21 21 16 17 14 23 25 35 43 38 39 38 34 36 31 27 20 21 23 25 31 34 38 41 43 44 45 46 49 51 54 56 59 58 59 63 72 74 73 84 91
24 19 15 18 17 13 8 7 23 23 32 40 35 31 35 30 20 21 25 26 31 36 37 38 39 40 41 42 44 47 50 53 55 57 61 65 67 72 76 82 88 88 79
25 21 16 14 18 18 15 12 8 15 21 20 14 17 25 24 25 28 31 36 37 36 36 36 37 38 40 43 46 50 53 56 59 63 66 69 75 80 79 79 79 80 82
27 22 19 16 15 16 17 17 16 17 16 18 19 20 26 33 34 35 35 36 33 32 33 35 40 42 45 50 54 56 60 62 66 70 74 76 75 72 73 76 77 80 78
29 25 21 19 18 17 16 16 18 19 20 22 26 29 31 31 32 31 30 30 32 35 38 41 43 45 48 52 57 59 66 71 75 71 67 71 72 74 74 76 74 77 80